Wetterdaten: Freitag, 10.03.2023
Datum Zeit Temp. Aussen Temp. o. S. Temp +5cm Feuchte Auss Luftdruck Regen Sonnenschein Regendauer Solar Windben Empfang
10.03.2023 00:00 8,8 C 8,3 C 6,1 C 99 % 988,9 hPa 0,0 l/m 0 min 2 min 0 W/m 12,9 km/h (3 Bft) 95,74 %
10.03.2023 00:02 8,8 C 8,3 C 6,1 C 99 % 988,8 hPa 0,0 l/m 0 min 2 min 0 W/m 12,9 km/h (3 Bft) 90,00 %
10.03.2023 00:04 8,9 C 8,3 C 6,1 C 99 % 988,8 hPa 0,0 l/m 0 min 2 min 0 W/m 12,9 km/h (3 Bft) 93,48 %
10.03.2023 00:07 8,9 C 8,3 C 6,7 C 99 % 988,7 hPa 0,0 l/m 0 min 0 min 0 W/m 19,3 km/h (3 Bft) 92,96 %
10.03.2023 00:08 8,9 C 8,3 C 6,1 C 99 % 988,7 hPa 0,0 l/m 0 min 0 min 0 W/m 9,7 km/h (2 Bft) 100,00 %
10.03.2023 00:12 9,0 C 8,3 C 6,1 C 99 % 988,6 hPa 0,2 l/m 0 min 0 min 0 W/m 16,1 km/h (3 Bft) 100,00 %
10.03.2023 00:14 9,0 C 8,3 C 6,1 C 99 % 988,5 hPa 0,0 l/m 0 min 0 min 0 W/m 9,7 km/h (2 Bft) 93,75 %
10.03.2023 00:16 9,1 C 8,3 C 6,1 C 99 % 988,6 hPa 0,0 l/m 0 min 0 min 0 W/m 12,9 km/h (3 Bft) 91,49 %
10.03.2023 00:18 9,1 C 8,3 C 6,1 C 99 % 988,5 hPa 0,0 l/m 0 min 0 min 0 W/m 12,9 km/h (3 Bft) 93,48 %
10.03.2023 00:20 9,1 C 8,9 C 6,1 C 99 % 988,5 hPa 0,2 l/m 0 min 0 min 0 W/m 16,1 km/h (3 Bft) 95,74 %
10.03.2023 00:25 9,2 C 8,9 C 6,7 C 99 % 988,4 hPa 0,0 l/m 0 min 5 min 0 W/m 16,1 km/h (3 Bft) 100,00 %
10.03.2023 00:26 9,2 C 8,9 C 6,7 C 99 % 988,4 hPa 0,0 l/m 0 min 1 min 0 W/m 16,1 km/h (3 Bft) 91,67 %
10.03.2023 00:28 9,2 C 8,9 C 6,7 C 99 % 988,2 hPa 0,0 l/m 0 min 2 min 0 W/m 9,7 km/h (2 Bft) 95,74 %
10.03.2023 00:30 9,2 C 8,9 C 6,7 C 99 % 988,2 hPa 0,0 l/m 0 min 0 min 0 W/m 12,9 km/h (3 Bft) 95,65 %
10.03.2023 00:32 9,2 C 8,9 C 6,7 C 99 % 988,2 hPa 0,0 l/m 0 min 0 min 0 W/m 6,4 km/h (2 Bft) 93,62 %
10.03.2023 00:34 9,2 C 8,9 C 6,7 C 99 % 988,1 hPa 0,2 l/m 0 min 0 min 0 W/m 9,7 km/h (2 Bft) 91,49 %
10.03.2023 00:36 9,2 C 8,9 C 6,7 C 99 % 988,1 hPa 0,0 l/m 0 min 2 min 0 W/m 6,4 km/h (2 Bft) 44,74 %
10.03.2023 00:38 9,2 C 8,9 C 6,7 C 99 % 988,1 hPa 0,0 l/m 0 min 2 min 0 W/m 6,4 km/h (2 Bft) 94,74 %
10.03.2023 00:40 9,2 C 8,9 C 6,7 C 99 % 988,0 hPa 0,0 l/m 0 min 0 min 0 W/m 12,9 km/h (3 Bft) 93,62 %
10.03.2023 00:42 9,2 C 8,9 C 6,7 C 99 % 987,9 hPa 0,0 l/m 0 min 0 min 0 W/m 19,3 km/h (3 Bft) 95,74 %
10.03.2023 00:44 9,2 C 8,9 C 6,7 C 99 % 987,9 hPa 0,0 l/m 0 min 0 min 0 W/m 16,1 km/h (3 Bft) 97,83 %
10.03.2023 00:46 9,2 C 8,9 C 6,7 C 99 % 987,9 hPa 0,0 l/m 0 min 0 min 0 W/m 16,1 km/h (3 Bft) 95,74 %
10.03.2023 00:48 9,2 C 8,9 C 6,7 C 99 % 987,8 hPa 0,0 l/m 0 min 0 min 0 W/m 16,1 km/h (3 Bft) 95,74 %
10.03.2023 00:50 9,3 C 8,9 C 6,7 C 99 % 987,9 hPa 0,0 l/m 0 min 0 min 0 W/m 16,1 km/h (3 Bft) 97,87 %
10.03.2023 00:52 9,3 C 8,9 C 6,7 C 99 % 987,8 hPa 0,0 l/m 0 min 0 min 0 W/m 16,1 km/h (3 Bft) 93,62 %
10.03.2023 00:54 9,3 C 8,9 C 6,7 C 99 % 987,8 hPa 0,0 l/m 0 min 0 min 0 W/m 16,1 km/h (3 Bft) 95,74 %
10.03.2023 00:56 9,3 C 8,9 C 6,7 C 99 % 987,8 hPa 0,0 l/m 0 min 2 min 0 W/m 16,1 km/h (3 Bft) 97,83 %
10.03.2023 00:58 9,3 C 8,9 C 6,7 C 99 % 987,8 hPa 0,0 l/m 0 min 2 min 0 W/m 16,1 km/h (3 Bft) 93,62 %
10.03.2023 01:00 9,3 C 8,9 C 6,7 C 99 % 987,8 hPa 0,0 l/m 0 min 2 min 0 W/m 25,7 km/h (4 Bft) 97,87 %
10.03.2023 01:02 9,4 C 8,9 C 6,7 C 99 % 987,8 hPa 0,0 l/m 0 min 2 min 0 W/m 16,1 km/h (3 Bft) 97,87 %
10.03.2023 01:04 9,4 C 8,9 C 6,7 C 99 % 987,9 hPa 0,0 l/m 0 min 2 min 0 W/m 29,0 km/h (5 Bft) 93,62 %
10.03.2023 01:06 9,5 C 8,9 C 6,7 C 99 % 987,9 hPa 0,0 l/m 0 min 0 min 0 W/m 22,5 km/h (4 Bft) 96,23 %
10.03.2023 01:08 9,6 C 8,9 C 6,7 C 99 % 987,8 hPa 0,0 l/m 0 min 0 min 0 W/m 22,5 km/h (4 Bft) 97,87 %
10.03.2023 01:10 9,6 C 8,9 C 6,7 C 99 % 987,9 hPa 0,0 l/m 0 min 2 min 0 W/m 19,3 km/h (3 Bft) 95,74 %
10.03.2023 01:12 9,6 C 9,4 C 6,7 C 99 % 987,8 hPa 0,0 l/m 0 min 2 min 0 W/m 25,7 km/h (4 Bft) 97,87 %
10.03.2023 01:14 9,7 C 9,4 C 6,7 C 99 % 987,8 hPa 0,0 l/m 0 min 2 min 0 W/m 29,0 km/h (5 Bft) 97,87 %
10.03.2023 01:16 9,7 C 9,4 C 6,7 C 99 % 987,8 hPa 0,2 l/m 0 min 2 min 0 W/m 29,0 km/h (5 Bft) 97,37 %
10.03.2023 01:18 9,7 C 9,4 C 6,7 C 99 % 987,9 hPa 0,0 l/m 0 min 2 min 0 W/m 22,5 km/h (4 Bft) 100,00 %
10.03.2023 01:20 9,8 C 9,4 C 7,2 C 99 % 987,8 hPa 0,0 l/m 0 min 2 min 0 W/m 41,8 km/h (6 Bft) 100,00 %
10.03.2023 01:22 9,8 C 9,4 C 7,2 C 99 % 987,9 hPa 0,0 l/m 0 min 2 min 0 W/m 22,5 km/h (4 Bft) 97,83 %
10.03.2023 01:24 9,9 C 9,4 C 7,2 C 99 % 987,9 hPa 0,0 l/m 0 min 2 min 0 W/m 32,2 km/h (5 Bft) 100,00 %
10.03.2023 01:26 9,9 C 9,4 C 7,2 C 99 % 987,9 hPa 0,0 l/m 0 min 2 min 0 W/m 25,7 km/h (4 Bft) 100,00 %
10.03.2023 01:28 10,0 C 9,4 C 7,2 C 99 % 987,9 hPa 0,0 l/m 0 min 2 min 0 W/m 25,7 km/h (4 Bft) 97,87 %
10.03.2023 01:30 10,1 C 9,4 C 7,2 C 99 % 988,0 hPa 0,0 l/m 0 min 2 min 0 W/m 35,4 km/h (5 Bft) 97,87 %
10.03.2023 01:32 10,1 C 9,4 C 7,2 C 99 % 987,9 hPa 0,0 l/m 0 min 2 min 0 W/m 29,0 km/h (5 Bft) 100,00 %
10.03.2023 01:34 10,1 C 9,4 C 7,2 C 99 % 987,9 hPa 0,0 l/m 0 min 2 min 0 W/m 22,5 km/h (4 Bft) 100,00 %
10.03.2023 01:36 10,1 C 9,4 C 7,2 C 98 % 988,0 hPa 0,0 l/m 0 min 2 min 0 W/m 32,2 km/h (5 Bft) 100,00 %
10.03.2023 01:38 10,1 C 9,4 C 7,2 C 98 % 988,0 hPa 0,0 l/m 0 min 2 min 0 W/m 16,1 km/h (3 Bft) 97,87 %
10.03.2023 01:40 10,1 C 9,4 C 7,2 C 98 % 988,1 hPa 0,0 l/m 0 min 2 min 0 W/m 9,7 km/h (2 Bft) 100,00 %
10.03.2023 01:42 10,1 C 9,4 C 7,2 C 98 % 988,1 hPa 0,0 l/m 0 min 2 min 0 W/m 12,9 km/h (3 Bft) 100,00 %
10.03.2023 01:44 10,1 C 8,9 C 7,2 C 98 % 988,1 hPa 0,2 l/m 0 min 2 min 0 W/m 12,9 km/h (3 Bft) 100,00 %
10.03.2023 01:46 10,0 C 8,9 C 7,2 C 98 % 988,1 hPa 0,0 l/m 0 min 2 min 0 W/m 22,5 km/h (4 Bft) 100,00 %
10.03.2023 01:48 10,0 C 8,9 C 7,2 C 98 % 988,1 hPa 0,0 l/m 0 min 2 min 0 W/m 22,5 km/h (4 Bft) 100,00 %
10.03.2023 01:50 10,0 C 9,4 C 7,2 C 98 % 988,1 hPa 0,2 l/m 0 min 2 min 0 W/m 22,5 km/h (4 Bft) 95,65 %
10.03.2023 01:52 10,0 C 8,9 C 7,2 C 98 % 988,2 hPa 0,0 l/m 0 min 2 min 0 W/m 32,2 km/h (5 Bft) 95,74 %
10.03.2023 01:54 10,0 C 8,9 C 7,2 C 98 % 988,2 hPa 0,0 l/m 0 min 2 min 0 W/m 29,0 km/h (5 Bft) 97,87 %
10.03.2023 01:56 9,9 C 8,9 C 7,2 C 98 % 988,2 hPa 0,0 l/m 0 min 2 min 0 W/m 19,3 km/h (3 Bft) 97,87 %
10.03.2023 01:58 9,9 C 8,9 C 6,7 C 98 % 988,3 hPa 0,0 l/m 0 min 2 min 0 W/m 16,1 km/h (3 Bft) 97,87 %
10.03.2023 02:00 9,9 C 8,9 C 6,7 C 97 % 988,2 hPa 0,0 l/m 0 min 2 min 0 W/m 19,3 km/h (3 Bft) 95,74 %
10.03.2023 02:02 9,8 C 8,9 C 6,7 C 97 % 988,2 hPa 0,0 l/m 0 min 2 min 0 W/m 22,5 km/h (4 Bft) 97,87 %
10.03.2023 02:04 9,8 C 8,9 C 6,7 C 97 % 988,3 hPa 0,0 l/m 0 min 0 min 0 W/m 19,3 km/h (3 Bft) 97,83 %
10.03.2023 02:06 9,8 C 8,9 C 6,7 C 97 % 988,1 hPa 0,0 l/m 0 min 0 min 0 W/m 12,9 km/h (3 Bft) 95,74 %
10.03.2023 02:08 9,8 C 8,9 C 6,7 C 97 % 988,1 hPa 0,0 l/m 0 min 0 min 0 W/m 6,4 km/h (2 Bft) 97,87 %
10.03.2023 02:10 9,8 C 8,9 C 6,7 C 97 % 988,1 hPa 0,0 l/m 0 min 0 min 0 W/m 6,4 km/h (2 Bft) 97,87 %
10.03.2023 02:12 9,8 C 8,9 C 6,7 C 97 % 988,2 hPa 0,0 l/m 0 min 0 min 0 W/m 16,1 km/h (3 Bft) 95,74 %
10.03.2023 02:14 9,8 C 8,9 C 6,7 C 97 % 988,2 hPa 0,0 l/m 0 min 0 min 0 W/m 12,9 km/h (3 Bft) 97,87 %
10.03.2023 02:16 9,7 C 8,9 C 6,7 C 97 % 988,2 hPa 0,0 l/m 0 min 0 min 0 W/m 12,9 km/h (3 Bft) 97,87 %
10.03.2023 02:18 9,7 C 8,9 C 6,7 C 97 % 988,1 hPa 0,0 l/m 0 min 0 min 0 W/m 9,7 km/h (2 Bft) 95,65 %
10.03.2023 02:20 9,7 C 8,9 C 6,7 C 97 % 988,1 hPa 0,0 l/m 0 min 0 min 0 W/m 16,1 km/h (3 Bft) 93,62 %
10.03.2023 02:22 9,7 C 8,9 C 6,7 C 97 % 988,2 hPa 0,0 l/m 0 min 0 min 0 W/m 16,1 km/h (3 Bft) 100,00 %
10.03.2023 02:24 9,7 C 8,9 C 6,7 C 97 % 988,2 hPa 0,0 l/m 0 min 0 min 0 W/m 6,4 km/h (2 Bft) 97,87 %
10.03.2023 02:26 9,7 C 8,9 C 6,7 C 97 % 988,2 hPa 0,2 l/m 0 min 2 min 0 W/m 16,1 km/h (3 Bft) 100,00 %
10.03.2023 02:28 9,7 C 8,9 C 6,7 C 97 % 988,2 hPa 0,0 l/m 0 min 2 min 0 W/m 12,9 km/h (3 Bft) 95,74 %
10.03.2023 02:30 9,7 C 8,9 C 6,7 C 97 % 988,2 hPa 0,2 l/m 0 min 2 min 0 W/m 12,9 km/h (3 Bft) 100,00 %
10.03.2023 02:32 9,7 C 8,9 C 6,7 C 97 % 988,1 hPa 0,0 l/m 0 min 2 min 0 W/m 16,1 km/h (3 Bft) 97,87 %
10.03.2023 02:34 9,7 C 8,9 C 6,7 C 97 % 988,0 hPa 0,0 l/m 0 min 2 min 0 W/m 6,4 km/h (2 Bft) 97,87 %
10.03.2023 02:36 9,7 C 8,9 C 6,7 C 97 % 988,0 hPa 0,0 l/m 0 min 2 min 0 W/m 3,2 km/h (1 Bft) 95,74 %
10.03.2023 02:38 9,6 C 8,3 C 6,7 C 97 % 987,9 hPa 0,0 l/m 0 min 2 min 0 W/m 6,4 km/h (2 Bft) 97,87 %
10.03.2023 02:40 9,6 C 8,3 C 6,7 C 97 % 987,9 hPa 0,0 l/m 0 min 2 min 0 W/m 3,2 km/h (1 Bft) 97,62 %
10.03.2023 02:42 9,6 C 8,3 C 6,7 C 97 % 987,9 hPa 0,0 l/m 0 min 2 min 0 W/m 6,4 km/h (2 Bft) 95,65 %
10.03.2023 02:44 9,6 C 8,3 C 6,7 C 97 % 987,8 hPa 0,2 l/m 0 min 2 min 0 W/m 12,9 km/h (3 Bft) 97,87 %
10.03.2023 02:46 9,6 C 8,3 C 6,7 C 97 % 987,9 hPa 0,0 l/m 0 min 2 min 0 W/m 12,9 km/h (3 Bft) 97,87 %
10.03.2023 02:48 9,6 C 8,3 C 6,7 C 97 % 987,9 hPa 0,2 l/m 0 min 2 min 0 W/m 12,9 km/h (3 Bft) 97,87 %
10.03.2023 02:50 9,6 C 8,3 C 6,7 C 97 % 987,8 hPa 0,0 l/m 0 min 2 min 0 W/m 6,4 km/h (2 Bft) 97,87 %
10.03.2023 02:52 9,6 C 8,3 C 6,7 C 97 % 987,8 hPa 0,0 l/m 0 min 0 min 0 W/m 9,7 km/h (2 Bft) 93,62 %
10.03.2023 02:54 9,6 C 8,3 C 6,7 C 97 % 987,8 hPa 0,0 l/m 0 min 2 min 0 W/m 9,7 km/h (2 Bft) 97,87 %
10.03.2023 02:56 9,6 C 8,3 C 6,7 C 97 % 987,9 hPa 0,0 l/m 0 min 2 min 0 W/m 6,4 km/h (2 Bft) 95,65 %
10.03.2023 02:58 9,6 C 8,3 C 6,7 C 97 % 987,9 hPa 0,0 l/m 0 min 2 min 0 W/m 9,7 km/h (2 Bft) 97,87 %
10.03.2023 03:00 9,6 C 8,3 C 6,7 C 97 % 987,9 hPa 0,2 l/m 0 min 2 min 0 W/m 12,9 km/h (3 Bft) 97,87 %
10.03.2023 03:02 9,6 C 8,3 C 6,7 C 97 % 987,9 hPa 0,0 l/m 0 min 2 min 0 W/m 19,3 km/h (3 Bft) 97,87 %
10.03.2023 03:04 9,6 C 8,3 C 6,7 C 97 % 987,9 hPa 0,0 l/m 0 min 2 min 0 W/m 3,2 km/h (1 Bft) 97,87 %
10.03.2023 03:06 9,6 C 8,3 C 6,7 C 97 % 987,9 hPa 0,2 l/m 0 min 2 min 0 W/m 9,7 km/h (2 Bft) 96,55 %
10.03.2023 03:08 9,6 C 8,3 C 6,7 C 97 % 987,9 hPa 0,0 l/m 0 min 2 min 0 W/m 6,4 km/h (2 Bft) 100,00 %
10.03.2023 03:10 9,6 C 8,3 C 6,7 C 97 % 987,9 hPa 0,0 l/m 0 min 2 min 0 W/m 9,7 km/h (2 Bft) 95,83 %
10.03.2023 03:15 9,6 C 8,9 C 6,7 C 97 % 987,9 hPa 0,0 l/m 0 min 5 min 0 W/m 12,9 km/h (3 Bft) 100,00 %
10.03.2023 03:16 9,6 C 8,9 C 6,7 C 97 % 987,9 hPa 0,0 l/m 0 min 1 min 0 W/m 6,4 km/h (2 Bft) 100,00 %
10.03.2023 03:18 9,6 C 8,9 C 6,7 C 97 % 987,9 hPa 0,0 l/m 0 min 2 min 0 W/m 9,7 km/h (2 Bft) 100,00 %
10.03.2023 03:20 9,6 C 8,9 C 6,7 C 97 % 987,8 hPa 0,0 l/m 0 min 2 min 0 W/m 16,1 km/h (3 Bft) 100,00 %
10.03.2023 03:22 9,6 C 8,9 C 6,7 C 97 % 987,9 hPa 0,0 l/m 0 min 2 min 0 W/m 12,9 km/h (3 Bft) 100,00 %
10.03.2023 03:24 9,6 C 8,9 C 6,7 C 98 % 987,8 hPa 0,0 l/m 0 min 2 min 0 W/m 12,9 km/h (3 Bft) 100,00 %
10.03.2023 03:26 9,6 C 8,9 C 6,7 C 98 % 987,8 hPa 0,0 l/m 0 min 2 min 0 W/m 12,9 km/h (3 Bft) 97,87 %
10.03.2023 03:28 9,6 C 8,9 C 6,7 C 97 % 987,8 hPa 0,0 l/m 0 min 2 min 0 W/m 9,7 km/h (2 Bft) 97,87 %
10.03.2023 03:30 9,5 C 8,3 C 6,7 C 97 % 987,9 hPa 0,0 l/m 0 min 2 min 0 W/m 12,9 km/h (3 Bft) 93,62 %
10.03.2023 03:32 9,5 C 8,3 C 6,7 C 97 % 987,9 hPa 0,0 l/m 0 min 0 min 0 W/m 16,1 km/h (3 Bft) 97,83 %
10.03.2023 03:34 9,5 C 8,3 C 6,7 C 98 % 987,9 hPa 0,0 l/m 0 min 0 min 0 W/m 16,1 km/h (3 Bft) 97,87 %
10.03.2023 03:36 9,5 C 8,3 C 6,7 C 97 % 987,8 hPa 0,0 l/m 0 min 0 min 0 W/m 16,1 km/h (3 Bft) 97,87 %
10.03.2023 03:38 9,5 C 8,3 C 6,7 C 97 % 987,8 hPa 0,0 l/m 0 min 0 min 0 W/m 12,9 km/h (3 Bft) 97,87 %
10.03.2023 03:40 9,5 C 8,3 C 6,7 C 98 % 987,7 hPa 0,0 l/m 0 min 0 min 0 W/m 12,9 km/h (3 Bft) 97,87 %
10.03.2023 03:42 9,5 C 8,3 C 6,7 C 98 % 987,8 hPa 0,0 l/m 0 min 0 min 0 W/m 12,9 km/h (3 Bft) 97,87 %
10.03.2023 03:44 9,5 C 8,3 C 6,7 C 98 % 987,7 hPa 0,0 l/m 0 min 0 min 0 W/m 9,7 km/h (2 Bft) 97,87 %
10.03.2023 03:46 9,4 C 8,3 C 6,7 C 98 % 987,7 hPa 0,0 l/m 0 min 0 min 0 W/m 9,7 km/h (2 Bft) 93,62 %
10.03.2023 03:48 9,4 C 8,3 C 6,7 C 98 % 987,8 hPa 0,0 l/m 0 min 0 min 0 W/m 16,1 km/h (3 Bft) 93,48 %
10.03.2023 03:50 9,4 C 8,3 C 6,7 C 98 % 987,7 hPa 0,2 l/m 0 min 0 min 0 W/m 12,9 km/h (3 Bft) 95,74 %
10.03.2023 03:52 9,4 C 8,3 C 6,7 C 98 % 987,7 hPa 0,0 l/m 0 min 0 min 0 W/m 16,1 km/h (3 Bft) 91,49 %
10.03.2023 03:54 9,4 C 8,3 C 6,7 C 98 % 987,7 hPa 0,0 l/m 0 min 0 min 0 W/m 9,7 km/h (2 Bft) 95,74 %
10.03.2023 03:56 9,4 C 8,3 C 6,7 C 98 % 987,6 hPa 0,0 l/m 0 min 0 min 0 W/m 12,9 km/h (3 Bft) 91,49 %
10.03.2023 03:58 9,4 C 8,3 C 6,7 C 98 % 987,5 hPa 0,0 l/m 0 min 0 min 0 W/m 6,4 km/h (2 Bft) 95,74 %
10.03.2023 04:00 9,4 C 8,3 C 6,7 C 98 % 987,5 hPa 0,0 l/m 0 min 0 min 0 W/m 9,7 km/h (2 Bft) 95,83 %
10.03.2023 04:05 9,4 C 8,3 C 6,7 C 98 % 987,5 hPa 0,0 l/m 0 min 0 min 0 W/m 9,7 km/h (2 Bft) 96,55 %
10.03.2023 04:06 9,4 C 8,3 C 6,7 C 98 % 987,5 hPa 0,0 l/m 0 min 0 min 0 W/m 6,4 km/h (2 Bft) 91,30 %
10.03.2023 04:08 9,4 C 8,3 C 6,7 C 98 % 987,5 hPa 0,0 l/m 0 min 0 min 0 W/m 3,2 km/h (1 Bft) 95,83 %
10.03.2023 04:10 9,3 C 8,3 C 6,7 C 98 % 987,5 hPa 0,0 l/m 0 min 0 min 0 W/m 6,4 km/h (2 Bft) 95,74 %
10.03.2023 04:12 9,3 C 8,3 C 6,7 C 98 % 987,4 hPa 0,0 l/m 0 min 0 min 0 W/m 9,7 km/h (2 Bft) 95,74 %
10.03.2023 04:14 9,3 C 8,3 C 6,7 C 98 % 987,5 hPa 0,0 l/m 0 min 0 min 0 W/m 9,7 km/h (2 Bft) 95,74 %
10.03.2023 04:16 9,3 C 8,3 C 6,7 C 98 % 987,6 hPa 0,0 l/m 0 min 0 min 0 W/m 12,9 km/h (3 Bft) 97,87 %
10.03.2023 04:18 9,3 C 8,3 C 6,7 C 98 % 987,5 hPa 0,0 l/m 0 min 0 min 0 W/m 9,7 km/h (2 Bft) 97,83 %
10.03.2023 04:20 9,3 C 8,3 C 6,7 C 98 % 987,5 hPa 0,0 l/m 0 min 0 min 0 W/m 16,1 km/h (3 Bft) 100,00 %
10.03.2023 04:22 9,3 C 8,3 C 6,7 C 98 % 987,6 hPa 0,0 l/m 0 min 0 min 0 W/m 16,1 km/h (3 Bft) 97,37 %
10.03.2023 04:24 9,4 C 8,3 C 6,7 C 98 % 987,5 hPa 0,0 l/m 0 min 0 min 0 W/m 9,7 km/h (2 Bft) 100,00 %
10.03.2023 04:26 9,4 C 8,9 C 6,7 C 98 % 987,5 hPa 0,0 l/m 0 min 0 min 0 W/m 16,1 km/h (3 Bft) 100,00 %
10.03.2023 04:28 9,4 C 8,9 C 6,7 C 98 % 987,5 hPa 0,0 l/m 0 min 0 min 0 W/m 16,1 km/h (3 Bft) 100,00 %
10.03.2023 04:30 9,4 C 8,9 C 6,7 C 98 % 987,5 hPa 0,0 l/m 0 min 0 min 0 W/m 19,3 km/h (3 Bft) 97,14 %
10.03.2023 04:32 9,4 C 8,9 C 6,7 C 98 % 987,5 hPa 0,0 l/m 0 min 0 min 0 W/m 9,7 km/h (2 Bft) 100,00 %
10.03.2023 04:34 9,4 C 8,3 C 6,7 C 98 % 987,4 hPa 0,0 l/m 0 min 0 min 0 W/m 12,9 km/h (3 Bft) 100,00 %
10.03.2023 04:36 9,4 C 8,3 C 6,7 C 98 % 987,5 hPa 0,0 l/m 0 min 0 min 0 W/m 12,9 km/h (3 Bft) 97,87 %
10.03.2023 04:38 9,4 C 8,3 C 6,7 C 98 % 987,5 hPa 0,0 l/m 0 min 0 min 0 W/m 12,9 km/h (3 Bft) 100,00 %
10.03.2023 04:40 9,4 C 8,3 C 6,7 C 98 % 987,5 hPa 0,0 l/m 0 min 0 min 0 W/m 9,7 km/h (2 Bft) 100,00 %
10.03.2023 04:42 9,4 C 8,3 C 6,7 C 98 % 987,5 hPa 0,0 l/m 0 min 0 min 0 W/m 12,9 km/h (3 Bft) 100,00 %
10.03.2023 04:44 9,3 C 8,3 C 6,7 C 98 % 987,5 hPa 0,0 l/m 0 min 0 min 0 W/m 9,7 km/h (2 Bft) 100,00 %
10.03.2023 04:46 9,3 C 8,3 C 6,7 C 98 % 987,5 hPa 0,0 l/m 0 min 0 min 0 W/m 16,1 km/h (3 Bft) 97,87 %
10.03.2023 04:48 9,3 C 8,3 C 6,7 C 98 % 987,5 hPa 0,0 l/m 0 min 0 min 0 W/m 16,1 km/h (3 Bft) 100,00 %
10.03.2023 04:50 9,3 C 8,3 C 6,7 C 98 % 987,5 hPa 0,0 l/m 0 min 0 min 0 W/m 16,1 km/h (3 Bft) 97,87 %
10.03.2023 04:52 9,3 C 8,3 C 6,7 C 98 % 987,5 hPa 0,0 l/m 0 min 0 min 0 W/m 16,1 km/h (3 Bft) 100,00 %
10.03.2023 04:54 9,3 C 8,3 C 6,7 C 98 % 987,5 hPa 0,0 l/m 0 min 0 min 0 W/m 12,9 km/h (3 Bft) 97,83 %
10.03.2023 04:56 9,3 C 8,3 C 6,7 C 98 % 987,5 hPa 0,0 l/m 0 min 0 min 0 W/m 12,9 km/h (3 Bft) 100,00 %
10.03.2023 04:58 9,3 C 8,3 C 6,7 C 98 % 987,5 hPa 0,0 l/m 0 min 0 min 0 W/m 19,3 km/h (3 Bft) 100,00 %
10.03.2023 05:00 9,3 C 8,3 C 6,7 C 98 % 987,5 hPa 0,0 l/m 0 min 0 min 0 W/m 12,9 km/h (3 Bft) 100,00 %
10.03.2023 05:02 9,3 C 8,3 C 6,7 C 98 % 987,5 hPa 0,0 l/m 0 min 0 min 0 W/m 19,3 km/h (3 Bft) 97,87 %
10.03.2023 05:04 9,3 C 8,3 C 6,7 C 98 % 987,4 hPa 0,0 l/m 0 min 0 min 0 W/m 12,9 km/h (3 Bft) 97,92 %
10.03.2023 05:06 9,3 C 8,3 C 6,7 C 98 % 987,3 hPa 0,0 l/m 0 min 0 min 0 W/m 9,7 km/h (2 Bft) 97,87 %
10.03.2023 05:08 9,3 C 8,3 C 6,7 C 98 % 987,3 hPa 0,0 l/m 0 min 0 min 0 W/m 12,9 km/h (3 Bft) 97,83 %
10.03.2023 05:10 9,3 C 8,3 C 6,7 C 98 % 987,3 hPa 0,0 l/m 0 min 0 min 0 W/m 9,7 km/h (2 Bft) 94,59 %
10.03.2023 05:12 9,3 C 8,3 C 6,7 C 98 % 987,3 hPa 0,0 l/m 0 min 0 min 0 W/m 12,9 km/h (3 Bft) 97,87 %
10.03.2023 05:14 9,2 C 8,3 C 6,7 C 98 % 987,2 hPa 0,0 l/m 0 min 0 min 0 W/m 6,4 km/h (2 Bft) 97,83 %
10.03.2023 05:16 9,2 C 8,3 C 6,7 C 98 % 987,2 hPa 0,0 l/m 0 min 0 min 0 W/m 22,5 km/h (4 Bft) 97,87 %
10.03.2023 05:18 9,2 C 8,3 C 6,7 C 98 % 987,3 hPa 0,0 l/m 0 min 0 min 0 W/m 16,1 km/h (3 Bft) 97,87 %
10.03.2023 05:20 9,2 C 8,3 C 6,7 C 98 % 987,3 hPa 0,0 l/m 0 min 0 min 0 W/m 9,7 km/h (2 Bft) 97,87 %
10.03.2023 05:22 9,2 C 8,3 C 6,7 C 98 % 987,3 hPa 0,0 l/m 0 min 0 min 0 W/m 12,9 km/h (3 Bft) 95,74 %
10.03.2023 05:24 9,2 C 8,3 C 6,7 C 98 % 987,3 hPa 0,0 l/m 0 min 0 min 0 W/m 22,5 km/h (4 Bft) 96,30 %
10.03.2023 05:26 9,2 C 8,3 C 6,7 C 98 % 987,3 hPa 0,0 l/m 0 min 0 min 0 W/m 16,1 km/h (3 Bft) 95,74 %
10.03.2023 05:28 9,2 C 8,3 C 6,7 C 98 % 987,3 hPa 0,0 l/m 0 min 0 min 0 W/m 16,1 km/h (3 Bft) 97,92 %
10.03.2023 05:30 9,2 C 8,3 C 6,7 C 98 % 987,2 hPa 0,0 l/m 0 min 0 min 0 W/m 9,7 km/h (2 Bft) 95,74 %
10.03.2023 05:32 9,2 C 8,3 C 6,7 C 98 % 987,3 hPa 0,0 l/m 0 min 0 min 0 W/m 9,7 km/h (2 Bft) 97,87 %
10.03.2023 05:34 9,1 C 8,3 C 6,7 C 98 % 987,2 hPa 0,0 l/m 0 min 0 min 0 W/m 12,9 km/h (3 Bft) 97,83 %
10.03.2023 05:36 9,1 C 8,3 C 6,7 C 98 % 987,2 hPa 0,0 l/m 0 min 0 min 0 W/m 9,7 km/h (2 Bft) 97,87 %
10.03.2023 05:38 9,1 C 8,3 C 6,7 C 98 % 987,2 hPa 0,0 l/m 0 min 0 min 0 W/m 9,7 km/h (2 Bft) 97,87 %
10.03.2023 05:43 9,1 C 8,3 C 6,7 C 98 % 987,1 hPa 0,0 l/m 0 min 0 min 0 W/m 12,9 km/h (3 Bft) 88,89 %
10.03.2023 05:44 9,1 C 8,3 C 6,7 C 98 % 987,1 hPa 0,0 l/m 0 min 0 min 0 W/m 12,9 km/h (3 Bft) 100,00 %
10.03.2023 05:46 9,1 C 8,3 C 6,7 C 98 % 987,1 hPa 0,0 l/m 0 min 0 min 0 W/m 12,9 km/h (3 Bft) 95,74 %
10.03.2023 05:48 9,1 C 8,3 C 6,1 C 98 % 987,0 hPa 0,0 l/m 0 min 0 min 0 W/m 3,2 km/h (1 Bft) 93,48 %
10.03.2023 05:50 9,1 C 8,3 C 6,1 C 98 % 987,1 hPa 0,0 l/m 0 min 0 min 0 W/m 12,9 km/h (3 Bft) 97,87 %
10.03.2023 05:52 9,1 C 8,3 C 6,1 C 98 % 987,1 hPa 0,0 l/m 0 min 0 min 0 W/m 16,1 km/h (3 Bft) 97,87 %
10.03.2023 05:54 9,0 C 8,3 C 6,1 C 98 % 987,1 hPa 0,0 l/m 0 min 0 min 0 W/m 19,3 km/h (3 Bft) 92,68 %
10.03.2023 05:56 9,0 C 8,3 C 6,1 C 98 % 987,1 hPa 0,0 l/m 0 min 0 min 0 W/m 16,1 km/h (3 Bft) 97,87 %
10.03.2023 05:58 9,0 C 8,3 C 6,1 C 98 % 987,0 hPa 0,0 l/m 0 min 0 min 0 W/m 16,1 km/h (3 Bft) 95,74 %
10.03.2023 06:00 9,0 C 8,3 C 6,1 C 98 % 987,0 hPa 0,0 l/m 0 min 0 min 0 W/m 16,1 km/h (3 Bft) 95,74 %
10.03.2023 06:02 9,0 C 8,3 C 6,1 C 98 % 987,0 hPa 0,0 l/m 0 min 0 min 0 W/m 12,9 km/h (3 Bft) 93,62 %
10.03.2023 06:04 9,0 C 8,3 C 6,1 C 98 % 986,9 hPa 0,0 l/m 0 min 0 min 0 W/m 22,5 km/h (4 Bft) 96,23 %
10.03.2023 06:07 9,0 C 8,3 C 6,1 C 98 % 986,9 hPa 0,0 l/m 0 min 0 min 0 W/m 12,9 km/h (3 Bft) 97,22 %
10.03.2023 06:08 9,0 C 8,3 C 6,1 C 98 % 986,9 hPa 0,0 l/m 0 min 0 min 0 W/m 6,4 km/h (2 Bft) 100,00 %
10.03.2023 06:12 9,0 C 8,3 C 6,1 C 98 % 986,9 hPa 0,0 l/m 0 min 0 min 0 W/m 12,9 km/h (3 Bft) 100,00 %
10.03.2023 06:14 9,0 C 8,3 C 6,1 C 98 % 986,9 hPa 0,0 l/m 0 min 0 min 0 W/m 6,4 km/h (2 Bft) 98,04 %
10.03.2023 06:16 8,9 C 8,3 C 6,1 C 98 % 986,9 hPa 0,0 l/m 0 min 0 min 0 W/m 12,9 km/h (3 Bft) 97,87 %
10.03.2023 06:18 8,9 C 8,3 C 6,1 C 98 % 986,9 hPa 0,0 l/m 0 min 0 min 0 W/m 9,7 km/h (2 Bft) 100,00 %
10.03.2023 06:20 8,9 C 8,3 C 6,1 C 98 % 986,9 hPa 0,0 l/m 0 min 0 min 0 W/m 6,4 km/h (2 Bft) 100,00 %
10.03.2023 06:22 8,9 C 8,3 C 6,1 C 98 % 986,9 hPa 0,0 l/m 0 min 0 min 0 W/m 9,7 km/h (2 Bft) 100,00 %
10.03.2023 06:24 8,9 C 8,3 C 6,1 C 97 % 986,9 hPa 0,0 l/m 0 min 0 min 0 W/m 6,4 km/h (2 Bft) 97,87 %
10.03.2023 06:26 8,9 C 8,3 C 6,1 C 97 % 986,9 hPa 0,0 l/m 0 min 0 min 0 W/m 12,9 km/h (3 Bft) 97,87 %
10.03.2023 06:28 8,9 C 8,3 C 6,1 C 97 % 986,9 hPa 0,0 l/m 0 min 0 min 0 W/m 9,7 km/h (2 Bft) 97,87 %
10.03.2023 06:30 8,9 C 8,3 C 6,1 C 97 % 986,9 hPa 0,0 l/m 0 min 0 min 0 W/m 6,4 km/h (2 Bft) 97,87 %
10.03.2023 06:32 8,9 C 8,3 C 6,1 C 97 % 986,9 hPa 0,0 l/m 0 min 0 min 0 W/m 16,1 km/h (3 Bft) 97,87 %
10.03.2023 06:34 8,9 C 8,3 C 6,1 C 97 % 986,9 hPa 0,0 l/m 0 min 0 min 0 W/m 3,2 km/h (1 Bft) 95,65 %
10.03.2023 06:36 8,9 C 8,3 C 6,1 C 97 % 986,8 hPa 0,0 l/m 0 min 0 min 0 W/m 3,2 km/h (1 Bft) 97,87 %
10.03.2023 06:38 8,9 C 8,3 C 6,1 C 97 % 986,8 hPa 0,0 l/m 0 min 0 min 0 W/m 0,0 km/h (0 Bft) 97,87 %
10.03.2023 06:40 8,9 C 8,3 C 6,1 C 97 % 986,8 hPa 0,0 l/m 0 min 0 min 0 W/m 12,9 km/h (3 Bft) 97,87 %
10.03.2023 06:42 8,8 C 8,3 C 6,1 C 97 % 986,8 hPa 0,0 l/m 0 min 0 min 0 W/m 3,2 km/h (1 Bft) 95,74 %
10.03.2023 06:44 8,8 C 8,3 C 6,1 C 97 % 986,8 hPa 0,0 l/m 0 min 0 min 0 W/m 6,4 km/h (2 Bft) 95,74 %
10.03.2023 06:46 8,8 C 8,3 C 6,1 C 97 % 986,9 hPa 0,0 l/m 0 min 0 min 0 W/m 6,4 km/h (2 Bft) 93,62 %
10.03.2023 06:48 8,8 C 8,3 C 6,1 C 97 % 986,8 hPa 0,0 l/m 0 min 0 min 0 W/m 6,4 km/h (2 Bft) 97,83 %
10.03.2023 06:50 8,8 C 8,3 C 6,1 C 97 % 986,9 hPa 0,0 l/m 0 min 0 min 0 W/m 6,4 km/h (2 Bft) 97,87 %
10.03.2023 06:52 8,8 C 8,3 C 6,1 C 97 % 986,9 hPa 0,0 l/m 0 min 0 min 0 W/m 12,9 km/h (3 Bft) 95,74 %
10.03.2023 06:54 8,8 C 8,3 C 6,1 C 97 % 986,9 hPa 0,0 l/m 0 min 0 min 0 W/m 9,7 km/h (2 Bft) 97,87 %
10.03.2023 06:56 8,8 C 8,3 C 6,1 C 97 % 987,0 hPa 0,0 l/m 0 min 0 min 0 W/m 22,5 km/h (4 Bft) 95,74 %
10.03.2023 06:58 8,8 C 8,3 C 6,1 C 97 % 986,9 hPa 0,0 l/m 0 min 0 min 0 W/m 12,9 km/h (3 Bft) 95,74 %
10.03.2023 07:00 8,8 C 8,3 C 6,1 C 97 % 986,9 hPa 0,0 l/m 0 min 0 min 0 W/m 12,9 km/h (3 Bft) 97,87 %
10.03.2023 07:02 8,9 C 8,3 C 6,1 C 97 % 986,9 hPa 0,0 l/m 0 min 0 min 0 W/m 12,9 km/h (3 Bft) 95,65 %
10.03.2023 07:04 8,9 C 8,3 C 6,1 C 97 % 986,8 hPa 0,0 l/m 0 min 0 min 0 W/m 6,4 km/h (2 Bft) 97,87 %
10.03.2023 07:06 8,9 C 8,3 C 6,1 C 97 % 986,8 hPa 0,0 l/m 0 min 0 min 2 W/m 12,9 km/h (3 Bft) 97,87 %
10.03.2023 07:08 8,9 C 8,3 C 6,1 C 97 % 986,9 hPa 0,0 l/m 0 min 0 min 6 W/m 9,7 km/h (2 Bft) 97,87 %
10.03.2023 07:10 8,9 C 8,3 C 6,1 C 97 % 986,8 hPa 0,0 l/m 0 min 0 min 9 W/m 6,4 km/h (2 Bft) 97,87 %
10.03.2023 07:12 8,9 C 8,3 C 6,1 C 97 % 986,9 hPa 0,0 l/m 0 min 0 min 9 W/m 12,9 km/h (3 Bft) 95,74 %
10.03.2023 07:14 8,9 C 8,3 C 6,1 C 97 % 986,9 hPa 0,0 l/m 0 min 0 min 11 W/m 16,1 km/h (3 Bft) 95,74 %
10.03.2023 07:16 8,9 C 8,3 C 6,1 C 97 % 986,9 hPa 0,0 l/m 0 min 0 min 12 W/m 12,9 km/h (3 Bft) 97,87 %
10.03.2023 07:18 8,9 C 8,3 C 6,1 C 97 % 987,0 hPa 0,0 l/m 0 min 0 min 12 W/m 22,5 km/h (4 Bft) 100,00 %
10.03.2023 07:20 8,9 C 8,3 C 6,1 C 97 % 986,9 hPa 0,0 l/m 0 min 0 min 12 W/m 12,9 km/h (3 Bft) 97,87 %
10.03.2023 07:22 8,9 C 8,3 C 6,1 C 97 % 986,8 hPa 0,0 l/m 0 min 0 min 14 W/m 9,7 km/h (2 Bft) 97,87 %
10.03.2023 07:24 8,9 C 8,3 C 6,1 C 97 % 986,8 hPa 0,0 l/m 0 min 0 min 14 W/m 16,1 km/h (3 Bft) 100,00 %
10.03.2023 07:26 8,9 C 8,3 C 6,1 C 97 % 986,9 hPa 0,0 l/m 0 min 0 min 12 W/m 6,4 km/h (2 Bft) 100,00 %
10.03.2023 07:28 8,9 C 8,3 C 6,1 C 97 % 986,9 hPa 0,0 l/m 0 min 0 min 12 W/m 16,1 km/h (3 Bft) 97,87 %
10.03.2023 07:30 8,9 C 8,3 C 6,1 C 97 % 986,8 hPa 0,0 l/m 0 min 0 min 14 W/m 19,3 km/h (3 Bft) 97,83 %
10.03.2023 07:32 8,9 C 8,3 C 6,1 C 97 % 986,8 hPa 0,0 l/m 0 min 0 min 21 W/m 19,3 km/h (3 Bft) 93,62 %
10.03.2023 07:34 9,0 C 8,3 C 6,1 C 97 % 986,9 hPa 0,0 l/m 0 min 0 min 31 W/m 22,5 km/h (4 Bft) 93,62 %
10.03.2023 07:36 9,0 C 8,3 C 6,7 C 97 % 986,9 hPa 0,0 l/m 0 min 0 min 38 W/m 12,9 km/h (3 Bft) 95,74 %
10.03.2023 07:38 9,0 C 8,3 C 6,7 C 97 % 986,9 hPa 0,0 l/m 0 min 0 min 32 W/m 6,4 km/h (2 Bft) 93,62 %
10.03.2023 07:40 9,0 C 8,3 C 6,1 C 97 % 987,0 hPa 0,0 l/m 0 min 2 min 26 W/m 12,9 km/h (3 Bft) 95,74 %
10.03.2023 07:42 9,0 C 8,3 C 6,7 C 97 % 987,0 hPa 0,0 l/m 0 min 2 min 24 W/m 16,1 km/h (3 Bft) 93,62 %
10.03.2023 07:44 9,0 C 8,3 C 6,7 C 97 % 987,0 hPa 0,0 l/m 0 min 2 min 20 W/m 16,1 km/h (3 Bft) 95,65 %
10.03.2023 07:46 9,0 C 8,3 C 6,7 C 97 % 986,9 hPa 0,0 l/m 0 min 2 min 19 W/m 12,9 km/h (3 Bft) 95,74 %
10.03.2023 07:48 9,0 C 8,3 C 6,7 C 97 % 986,9 hPa 0,0 l/m 0 min 0 min 19 W/m 12,9 km/h (3 Bft) 93,62 %
10.03.2023 07:50 9,0 C 8,3 C 6,7 C 97 % 986,9 hPa 0,0 l/m 0 min 0 min 18 W/m 16,1 km/h (3 Bft) 95,74 %
10.03.2023 07:52 9,0 C 8,3 C 6,1 C 97 % 987,0 hPa 0,0 l/m 0 min 0 min 18 W/m 9,7 km/h (2 Bft) 95,74 %
10.03.2023 07:54 9,0 C 8,3 C 6,1 C 97 % 987,0 hPa 0,0 l/m 0 min 0 min 16 W/m 19,3 km/h (3 Bft) 91,49 %
10.03.2023 07:56 9,0 C 8,3 C 6,1 C 97 % 987,0 hPa 0,0 l/m 0 min 0 min 17 W/m 19,3 km/h (3 Bft) 95,65 %
10.03.2023 07:58 9,0 C 8,3 C 6,7 C 97 % 987,0 hPa 0,0 l/m 0 min 0 min 20 W/m 22,5 km/h (4 Bft) 95,74 %
10.03.2023 08:00 9,0 C 8,3 C 6,7 C 97 % 987,1 hPa 0,0 l/m 0 min 0 min 21 W/m 22,5 km/h (4 Bft) 95,74 %
10.03.2023 08:02 9,0 C 8,3 C 6,7 C 97 % 987,1 hPa 0,0 l/m 0 min 0 min 20 W/m 16,1 km/h (3 Bft) 93,62 %
10.03.2023 08:04 9,1 C 8,3 C 6,1 C 97 % 987,1 hPa 0,0 l/m 0 min 0 min 19 W/m 22,5 km/h (4 Bft) 97,87 %
10.03.2023 08:06 9,1 C 8,3 C 6,7 C 97 % 987,2 hPa 0,0 l/m 0 min 0 min 24 W/m 22,5 km/h (4 Bft) 97,87 %
10.03.2023 08:08 9,1 C 8,3 C 6,7 C 97 % 987,1 hPa 0,0 l/m 0 min 0 min 34 W/m 22,5 km/h (4 Bft) 95,74 %
10.03.2023 08:10 9,1 C 8,3 C 6,7 C 97 % 987,2 hPa 0,0 l/m 0 min 0 min 43 W/m 19,3 km/h (3 Bft) 95,74 %
10.03.2023 08:12 9,1 C 8,3 C 6,7 C 97 % 987,2 hPa 0,0 l/m 0 min 0 min 47 W/m 19,3 km/h (3 Bft) 84,78 %
10.03.2023 08:14 9,1 C 8,3 C 6,7 C 97 % 987,2 hPa 0,0 l/m 0 min 0 min 43 W/m 16,1 km/h (3 Bft) 95,74 %
10.03.2023 08:16 9,1 C 8,3 C 6,7 C 97 % 987,2 hPa 0,0 l/m 0 min 0 min 42 W/m 22,5 km/h (4 Bft) 95,74 %
10.03.2023 08:18 9,1 C 8,3 C 6,7 C 97 % 987,2 hPa 0,0 l/m 0 min 0 min 47 W/m 9,7 km/h (2 Bft) 78,72 %
10.03.2023 08:20 9,1 C 8,3 C 6,7 C 97 % 987,2 hPa 0,0 l/m 0 min 0 min 64 W/m 16,1 km/h (3 Bft) 70,21 %
10.03.2023 08:22 9,1 C 8,9 C 6,7 C 97 % 987,2 hPa 0,0 l/m 0 min 0 min 79 W/m 9,7 km/h (2 Bft) 85,11 %
10.03.2023 08:24 9,1 C 8,9 C 6,7 C 97 % 987,2 hPa 0,0 l/m 0 min 0 min 92 W/m 16,1 km/h (3 Bft) 87,23 %
10.03.2023 08:26 9,2 C 8,9 C 6,7 C 97 % 987,2 hPa 0,0 l/m 0 min 0 min 85 W/m 16,1 km/h (3 Bft) 65,22 %
10.03.2023 08:28 9,2 C 8,9 C 6,7 C 97 % 987,2 hPa 0,2 l/m 0 min 2 min 76 W/m 9,7 km/h (2 Bft) 55,32 %
10.03.2023 08:30 9,2 C 8,9 C 6,7 C 97 % 987,2 hPa 0,0 l/m 0 min 2 min 71 W/m 12,9 km/h (3 Bft) 82,98 %
10.03.2023 08:32 9,2 C 8,9 C 6,7 C 97 % 987,2 hPa 0,0 l/m 0 min 0 min 63 W/m 6,4 km/h (2 Bft) 97,87 %
10.03.2023 08:34 9,2 C 8,9 C 6,7 C 97 % 987,2 hPa 0,0 l/m 0 min 0 min 51 W/m 16,1 km/h (3 Bft) 100,00 %
10.03.2023 08:36 9,2 C 8,9 C 6,7 C 97 % 987,2 hPa 0,0 l/m 0 min 0 min 50 W/m 12,9 km/h (3 Bft) 100,00 %
10.03.2023 08:38 9,3 C 8,9 C 6,7 C 97 % 987,2 hPa 0,0 l/m 0 min 0 min 63 W/m 19,3 km/h (3 Bft) 100,00 %
10.03.2023 08:40 9,3 C 8,9 C 6,7 C 97 % 987,2 hPa 0,0 l/m 0 min 0 min 78 W/m 19,3 km/h (3 Bft) 97,83 %
10.03.2023 08:42 9,3 C 8,9 C 6,7 C 97 % 987,1 hPa 0,0 l/m 0 min 2 min 82 W/m 12,9 km/h (3 Bft) 100,00 %
10.03.2023 08:44 9,3 C 8,9 C 6,7 C 97 % 987,2 hPa 0,0 l/m 0 min 2 min 74 W/m 12,9 km/h (3 Bft) 100,00 %
10.03.2023 08:46 9,3 C 8,9 C 6,7 C 97 % 987,2 hPa 0,0 l/m 0 min 2 min 67 W/m 19,3 km/h (3 Bft) 100,00 %
10.03.2023 08:48 9,3 C 8,9 C 6,7 C 97 % 987,1 hPa 0,0 l/m 0 min 2 min 63 W/m 22,5 km/h (4 Bft) 63,83 %
10.03.2023 08:50 9,3 C 8,9 C 6,7 C 97 % 987,1 hPa 0,0 l/m 0 min 2 min 59 W/m 16,1 km/h (3 Bft) 91,67 %
10.03.2023 08:52 9,3 C 8,9 C 6,7 C 97 % 987,2 hPa 0,0 l/m 0 min 0 min 52 W/m 16,1 km/h (3 Bft) 100,00 %
10.03.2023 08:54 9,3 C 8,9 C 6,7 C 97 % 987,2 hPa 0,0 l/m 0 min 0 min 53 W/m 16,1 km/h (3 Bft) 100,00 %
10.03.2023 08:56 9,3 C 8,9 C 6,7 C 97 % 987,2 hPa 0,0 l/m 0 min 2 min 62 W/m 9,7 km/h (2 Bft) 97,87 %
10.03.2023 08:58 9,3 C 8,9 C 6,7 C 97 % 987,2 hPa 0,0 l/m 0 min 2 min 69 W/m 12,9 km/h (3 Bft) 100,00 %
10.03.2023 09:00 9,4 C 8,9 C 6,7 C 97 % 987,3 hPa 0,0 l/m 0 min 0 min 70 W/m 12,9 km/h (3 Bft) 100,00 %
10.03.2023 09:02 9,4 C 9,4 C 6,7 C 97 % 987,3 hPa 0,0 l/m 0 min 0 min 81 W/m 12,9 km/h (3 Bft) 97,87 %
10.03.2023 09:04 9,4 C 9,4 C 6,7 C 97 % 987,3 hPa 0,0 l/m 0 min 0 min 106 W/m 19,3 km/h (3 Bft) 93,62 %
10.03.2023 09:06 9,4 C 9,4 C 7,2 C 97 % 987,3 hPa 0,0 l/m 0 min 0 min 122 W/m 9,7 km/h (2 Bft) 100,00 %
10.03.2023 09:08 9,4 C 9,4 C 7,2 C 97 % 987,3 hPa 0,0 l/m 0 min 0 min 128 W/m 16,1 km/h (3 Bft) 97,92 %
10.03.2023 09:10 9,5 C 10,0 C 7,2 C 97 % 987,3 hPa 0,0 l/m 0 min 0 min 132 W/m 16,1 km/h (3 Bft) 100,00 %
10.03.2023 09:12 9,5 C 10,0 C 7,2 C 97 % 987,4 hPa 0,0 l/m 0 min 0 min 139 W/m 16,1 km/h (3 Bft) 100,00 %
10.03.2023 09:14 9,6 C 10,0 C 7,2 C 97 % 987,3 hPa 0,0 l/m 0 min 0 min 151 W/m 19,3 km/h (3 Bft) 100,00 %
10.03.2023 09:16 9,6 C 10,0 C 7,2 C 97 % 987,4 hPa 0,0 l/m 0 min 0 min 152 W/m 16,1 km/h (3 Bft) 100,00 %
10.03.2023 09:18 9,6 C 10,0 C 7,2 C 97 % 987,4 hPa 0,0 l/m 0 min 0 min 142 W/m 12,9 km/h (3 Bft) 100,00 %
10.03.2023 09:20 9,7 C 10,0 C 7,2 C 97 % 987,3 hPa 0,0 l/m 0 min 0 min 121 W/m 6,4 km/h (2 Bft) 100,00 %
10.03.2023 09:22 9,7 C 10,0 C 7,2 C 97 % 987,4 hPa 0,0 l/m 0 min 0 min 104 W/m 6,4 km/h (2 Bft) 100,00 %
10.03.2023 09:24 9,7 C 10,0 C 7,2 C 97 % 987,3 hPa 0,0 l/m 0 min 0 min 96 W/m 16,1 km/h (3 Bft) 95,65 %
10.03.2023 09:26 9,7 C 10,0 C 7,2 C 97 % 987,4 hPa 0,0 l/m 0 min 0 min 95 W/m 16,1 km/h (3 Bft) 96,61 %
10.03.2023 09:28 9,7 C 10,0 C 7,2 C 97 % 987,4 hPa 0,0 l/m 0 min 0 min 96 W/m 16,1 km/h (3 Bft) 91,49 %
10.03.2023 09:30 9,7 C 10,0 C 7,2 C 97 % 987,5 hPa 0,0 l/m 0 min 0 min 92 W/m 22,5 km/h (4 Bft) 95,74 %
10.03.2023 09:32 9,7 C 10,0 C 7,2 C 97 % 987,4 hPa 0,0 l/m 0 min 0 min 101 W/m 16,1 km/h (3 Bft) 93,62 %
10.03.2023 09:34 9,7 C 10,0 C 7,2 C 97 % 987,5 hPa 0,0 l/m 0 min 0 min 123 W/m 25,7 km/h (4 Bft) 97,14 %
10.03.2023 09:36 9,7 C 10,0 C 7,2 C 97 % 987,5 hPa 0,0 l/m 0 min 0 min 149 W/m 22,5 km/h (4 Bft) 95,74 %
10.03.2023 09:38 9,8 C 10,6 C 7,2 C 97 % 987,6 hPa 0,0 l/m 0 min 0 min 170 W/m 19,3 km/h (3 Bft) 93,48 %
10.03.2023 09:40 9,8 C 10,6 C 7,2 C 97 % 987,4 hPa 0,0 l/m 0 min 0 min 178 W/m 16,1 km/h (3 Bft) 95,74 %
10.03.2023 09:42 9,8 C 10,6 C 7,2 C 97 % 987,4 hPa 0,0 l/m 0 min 0 min 172 W/m 12,9 km/h (3 Bft) 93,62 %
10.03.2023 09:44 9,9 C 10,6 C 7,2 C 97 % 987,4 hPa 0,0 l/m 0 min 0 min 163 W/m 12,9 km/h (3 Bft) 93,62 %
10.03.2023 09:46 9,9 C 10,6 C 7,2 C 97 % 987,5 hPa 0,0 l/m 0 min 0 min 160 W/m 12,9 km/h (3 Bft) 95,74 %
10.03.2023 09:48 10,0 C 10,6 C 7,2 C 96 % 987,5 hPa 0,0 l/m 0 min 0 min 162 W/m 12,9 km/h (3 Bft) 91,49 %
10.03.2023 09:50 10,0 C 10,6 C 7,2 C 96 % 987,4 hPa 0,0 l/m 0 min 0 min 162 W/m 6,4 km/h (2 Bft) 93,62 %
10.03.2023 09:52 10,1 C 10,6 C 7,2 C 96 % 987,4 hPa 0,0 l/m 0 min 0 min 164 W/m 22,5 km/h (4 Bft) 95,65 %
10.03.2023 09:54 10,1 C 11,1 C 7,2 C 96 % 987,5 hPa 0,0 l/m 0 min 0 min 177 W/m 12,9 km/h (3 Bft) 93,62 %
10.03.2023 09:56 10,2 C 11,1 C 7,2 C 96 % 987,4 hPa 0,0 l/m 0 min 0 min 198 W/m 16,1 km/h (3 Bft) 91,49 %
10.03.2023 09:58 10,2 C 11,1 C 7,8 C 96 % 987,4 hPa 0,0 l/m 2 min 0 min 206 W/m 16,1 km/h (3 Bft) 91,49 %
10.03.2023 10:00 10,2 C 11,7 C 7,8 C 96 % 987,4 hPa 0,0 l/m 2 min 0 min 218 W/m 12,9 km/h (3 Bft) 93,62 %
10.03.2023 10:02 10,3 C 11,7 C 7,8 C 96 % 987,5 hPa 0,0 l/m 2 min 0 min 234 W/m 16,1 km/h (3 Bft) 93,62 %
10.03.2023 10:04 10,3 C 11,7 C 7,8 C 96 % 987,5 hPa 0,0 l/m 2 min 0 min 234 W/m 16,1 km/h (3 Bft) 93,48 %
10.03.2023 10:06 10,4 C 11,7 C 7,8 C 95 % 987,5 hPa 0,0 l/m 2 min 0 min 219 W/m 19,3 km/h (3 Bft) 96,61 %
10.03.2023 10:08 10,5 C 11,7 C 7,8 C 95 % 987,5 hPa 0,0 l/m 2 min 0 min 212 W/m 19,3 km/h (3 Bft) 93,62 %
10.03.2023 10:10 10,6 C 11,7 C 7,8 C 95 % 987,5 hPa 0,0 l/m 2 min 0 min 223 W/m 22,5 km/h (4 Bft) 94,29 %
10.03.2023 10:12 10,6 C 11,7 C 7,8 C 95 % 987,5 hPa 0,0 l/m 2 min 0 min 232 W/m 25,7 km/h (4 Bft) 89,36 %
10.03.2023 10:14 10,6 C 12,2 C 7,8 C 94 % 987,4 hPa 0,0 l/m 2 min 0 min 234 W/m 32,2 km/h (5 Bft) 93,62 %
10.03.2023 10:16 10,7 C 12,8 C 7,8 C 94 % 987,5 hPa 0,0 l/m 2 min 0 min 289 W/m 29,0 km/h (5 Bft) 97,87 %
10.03.2023 10:18 10,8 C 12,8 C 7,8 C 93 % 987,4 hPa 0,0 l/m 2 min 0 min 250 W/m 16,1 km/h (3 Bft) 97,83 %
10.03.2023 10:20 10,8 C 12,2 C 7,8 C 93 % 987,5 hPa 0,0 l/m 2 min 0 min 240 W/m 19,3 km/h (3 Bft) 95,74 %
10.03.2023 10:22 10,9 C 12,2 C 7,8 C 93 % 987,5 hPa 0,0 l/m 0 min 0 min 213 W/m 19,3 km/h (3 Bft) 97,87 %
10.03.2023 10:24 10,9 C 12,2 C 7,8 C 92 % 987,4 hPa 0,0 l/m 0 min 0 min 183 W/m 19,3 km/h (3 Bft) 97,87 %
10.03.2023 10:26 11,0 C 11,7 C 7,8 C 91 % 987,5 hPa 0,0 l/m 0 min 0 min 159 W/m 22,5 km/h (4 Bft) 93,62 %
10.03.2023 10:28 11,0 C 11,7 C 7,8 C 91 % 987,4 hPa 0,0 l/m 0 min 0 min 192 W/m 22,5 km/h (4 Bft) 91,49 %
10.03.2023 10:30 11,0 C 11,7 C 7,8 C 91 % 987,5 hPa 0,0 l/m 0 min 0 min 183 W/m 25,7 km/h (4 Bft) 95,74 %
10.03.2023 10:32 11,1 C 11,7 C 7,8 C 90 % 987,5 hPa 0,0 l/m 0 min 0 min 179 W/m 25,7 km/h (4 Bft) 95,65 %
10.03.2023 10:34 11,1 C 12,2 C 8,3 C 90 % 987,4 hPa 0,0 l/m 2 min 0 min 258 W/m 19,3 km/h (3 Bft) 97,87 %
10.03.2023 10:36 11,1 C 12,8 C 8,9 C 90 % 987,5 hPa 0,0 l/m 2 min 0 min 259 W/m 16,1 km/h (3 Bft) 95,74 %
10.03.2023 10:38 11,2 C 12,8 C 8,9 C 90 % 987,5 hPa 0,0 l/m 2 min 0 min 259 W/m 22,5 km/h (4 Bft) 97,87 %
10.03.2023 10:40 11,2 C 12,8 C 8,9 C 89 % 987,5 hPa 0,0 l/m 2 min 0 min 306 W/m 29,0 km/h (5 Bft) 95,74 %
10.03.2023 10:42 11,3 C 13,3 C 8,9 C 89 % 987,5 hPa 0,0 l/m 2 min 0 min 307 W/m 12,9 km/h (3 Bft) 97,87 %
10.03.2023 10:44 11,4 C 13,9 C 9,4 C 89 % 987,4 hPa 0,0 l/m 2 min 0 min 310 W/m 12,9 km/h (3 Bft) 97,87 %
10.03.2023 10:46 11,4 C 13,9 C 9,4 C 89 % 987,5 hPa 0,0 l/m 2 min 0 min 312 W/m 19,3 km/h (3 Bft) 97,83 %
10.03.2023 10:48 11,6 C 13,9 C 9,4 C 88 % 987,5 hPa 0,0 l/m 2 min 0 min 298 W/m 22,5 km/h (4 Bft) 95,74 %
10.03.2023 10:50 11,6 C 13,3 C 9,4 C 88 % 987,5 hPa 0,0 l/m 2 min 0 min 279 W/m 29,0 km/h (5 Bft) 100,00 %
10.03.2023 10:52 11,7 C 13,3 C 9,4 C 88 % 987,5 hPa 0,0 l/m 2 min 0 min 259 W/m 19,3 km/h (3 Bft) 100,00 %
10.03.2023 10:54 11,8 C 13,3 C 9,4 C 87 % 987,4 hPa 0,0 l/m 2 min 0 min 291 W/m 16,1 km/h (3 Bft) 100,00 %
10.03.2023 10:56 11,8 C 12,8 C 9,4 C 87 % 987,4 hPa 0,0 l/m 0 min 0 min 242 W/m 19,3 km/h (3 Bft) 100,00 %
10.03.2023 10:58 11,8 C 12,8 C 9,4 C 86 % 987,5 hPa 0,0 l/m 2 min 0 min 256 W/m 25,7 km/h (4 Bft) 100,00 %
10.03.2023 11:00 11,8 C 12,8 C 9,4 C 86 % 987,5 hPa 0,0 l/m 2 min 0 min 258 W/m 22,5 km/h (4 Bft) 100,00 %
10.03.2023 11:02 11,8 C 12,8 C 9,4 C 85 % 987,5 hPa 0,0 l/m 2 min 0 min 258 W/m 19,3 km/h (3 Bft) 97,87 %
10.03.2023 11:04 11,8 C 12,2 C 9,4 C 85 % 987,6 hPa 0,0 l/m 2 min 0 min 268 W/m 35,4 km/h (5 Bft) 100,00 %
10.03.2023 11:06 11,8 C 12,2 C 8,9 C 84 % 987,5 hPa 0,0 l/m 2 min 0 min 285 W/m 41,8 km/h (6 Bft) 98,31 %
10.03.2023 11:08 11,8 C 12,2 C 9,4 C 84 % 987,5 hPa 0,0 l/m 2 min 0 min 291 W/m 35,4 km/h (5 Bft) 100,00 %
10.03.2023 11:10 11,8 C 12,8 C 9,4 C 85 % 987,5 hPa 0,0 l/m 2 min 0 min 310 W/m 19,3 km/h (3 Bft) 100,00 %
10.03.2023 11:12 11,8 C 12,8 C 9,4 C 84 % 987,5 hPa 0,0 l/m 2 min 0 min 322 W/m 35,4 km/h (5 Bft) 91,30 %
10.03.2023 11:14 11,8 C 12,8 C 9,4 C 84 % 987,5 hPa 0,0 l/m 2 min 0 min 292 W/m 22,5 km/h (4 Bft) 97,87 %
10.03.2023 11:16 11,8 C 12,8 C 9,4 C 84 % 987,5 hPa 0,0 l/m 0 min 0 min 254 W/m 29,0 km/h (5 Bft) 100,00 %
10.03.2023 11:18 11,9 C 13,3 C 9,4 C 84 % 987,5 hPa 0,0 l/m 2 min 0 min 294 W/m 16,1 km/h (3 Bft) 97,87 %
10.03.2023 11:20 11,9 C 14,4 C 10,0 C 84 % 987,5 hPa 0,0 l/m 2 min 0 min 370 W/m 16,1 km/h (3 Bft) 100,00 %
10.03.2023 11:22 12,0 C 14,4 C 10,6 C 84 % 987,5 hPa 0,0 l/m 2 min 0 min 346 W/m 12,9 km/h (3 Bft) 97,87 %
10.03.2023 11:24 12,1 C 14,4 C 10,6 C 84 % 987,4 hPa 0,0 l/m 2 min 0 min 343 W/m 16,1 km/h (3 Bft) 100,00 %
10.03.2023 11:26 12,1 C 13,9 C 10,6 C 84 % 987,5 hPa 0,0 l/m 0 min 0 min 250 W/m 19,3 km/h (3 Bft) 95,74 %
10.03.2023 11:28 12,2 C 13,3 C 10,0 C 84 % 987,5 hPa 0,0 l/m 0 min 0 min 217 W/m 22,5 km/h (4 Bft) 97,87 %
10.03.2023 11:30 12,2 C 12,8 C 10,0 C 84 % 987,5 hPa 0,0 l/m 0 min 0 min 196 W/m 16,1 km/h (3 Bft) 95,74 %
10.03.2023 11:32 12,2 C 12,2 C 9,4 C 83 % 987,6 hPa 0,0 l/m 0 min 0 min 151 W/m 25,7 km/h (4 Bft) 95,74 %
10.03.2023 11:34 12,1 C 12,2 C 9,4 C 83 % 987,6 hPa 0,0 l/m 0 min 0 min 125 W/m 29,0 km/h (5 Bft) 95,74 %
10.03.2023 11:36 12,1 C 12,2 C 9,4 C 83 % 987,6 hPa 0,0 l/m 0 min 0 min 141 W/m 22,5 km/h (4 Bft) 95,74 %
10.03.2023 11:38 12,1 C 12,2 C 9,4 C 83 % 987,6 hPa 0,0 l/m 0 min 0 min 164 W/m 29,0 km/h (5 Bft) 97,83 %
10.03.2023 11:40 12,0 C 12,2 C 9,4 C 83 % 987,5 hPa 0,0 l/m 0 min 0 min 176 W/m 25,7 km/h (4 Bft) 97,87 %
10.03.2023 11:42 11,9 C 12,2 C 9,4 C 83 % 987,5 hPa 0,0 l/m 0 min 0 min 190 W/m 19,3 km/h (3 Bft) 97,87 %
10.03.2023 11:44 11,9 C 12,2 C 9,4 C 83 % 987,6 hPa 0,0 l/m 0 min 0 min 195 W/m 22,5 km/h (4 Bft) 95,74 %
10.03.2023 11:46 11,9 C 12,2 C 9,4 C 82 % 987,5 hPa 0,0 l/m 0 min 0 min 189 W/m 19,3 km/h (3 Bft) 97,87 %
10.03.2023 11:48 11,9 C 11,7 C 9,4 C 82 % 987,6 hPa 0,0 l/m 0 min 0 min 149 W/m 29,0 km/h (5 Bft) 100,00 %
10.03.2023 11:50 11,9 C 11,7 C 8,9 C 82 % 987,5 hPa 0,0 l/m 0 min 0 min 109 W/m 19,3 km/h (3 Bft) 97,87 %
10.03.2023 11:52 11,8 C 11,7 C 8,9 C 82 % 987,6 hPa 0,0 l/m 0 min 0 min 92 W/m 12,9 km/h (3 Bft) 97,83 %
10.03.2023 11:54 11,8 C 11,7 C 8,9 C 82 % 987,5 hPa 0,0 l/m 0 min 0 min 65 W/m 25,7 km/h (4 Bft) 97,87 %
10.03.2023 11:56 11,8 C 11,7 C 8,9 C 82 % 987,5 hPa 0,0 l/m 0 min 0 min 65 W/m 19,3 km/h (3 Bft) 97,87 %
10.03.2023 11:58 11,8 C 11,7 C 8,9 C 82 % 987,5 hPa 0,0 l/m 0 min 0 min 82 W/m 12,9 km/h (3 Bft) 97,87 %
10.03.2023 12:00 11,8 C 11,7 C 8,3 C 83 % 987,5 hPa 0,0 l/m 0 min 0 min 102 W/m 16,1 km/h (3 Bft) 97,87 %
10.03.2023 12:02 11,7 C 11,7 C 8,3 C 83 % 987,5 hPa 0,0 l/m 0 min 0 min 126 W/m 19,3 km/h (3 Bft) 93,62 %
10.03.2023 12:04 11,7 C 11,7 C 8,3 C 83 % 987,5 hPa 0,0 l/m 0 min 0 min 151 W/m 25,7 km/h (4 Bft) 97,87 %
10.03.2023 12:07 11,7 C 11,1 C 8,9 C 83 % 987,5 hPa 0,0 l/m 0 min 0 min 140 W/m 41,8 km/h (6 Bft) 98,57 %
10.03.2023 12:08 11,7 C 11,7 C 8,9 C 83 % 987,5 hPa 0,0 l/m 0 min 0 min 139 W/m 19,3 km/h (3 Bft) 100,00 %
10.03.2023 12:12 11,6 C 11,7 C 8,9 C 83 % 987,4 hPa 0,0 l/m 0 min 4 min 145 W/m 25,7 km/h (4 Bft) 100,00 %
10.03.2023 12:14 11,6 C 11,1 C 8,3 C 83 % 987,4 hPa 0,0 l/m 0 min 0 min 129 W/m 41,8 km/h (6 Bft) 97,87 %
10.03.2023 12:16 11,6 C 11,1 C 8,3 C 83 % 987,5 hPa 0,0 l/m 0 min 0 min 124 W/m 32,2 km/h (5 Bft) 95,74 %
10.03.2023 12:18 11,5 C 11,1 C 8,3 C 83 % 987,4 hPa 0,0 l/m 0 min 0 min 133 W/m 22,5 km/h (4 Bft) 97,83 %
10.03.2023 12:20 11,5 C 11,1 C 8,3 C 83 % 987,4 hPa 0,0 l/m 0 min 0 min 125 W/m 19,3 km/h (3 Bft) 95,74 %
10.03.2023 12:22 11,4 C 11,1 C 7,8 C 83 % 987,4 hPa 0,0 l/m 0 min 2 min 107 W/m 22,5 km/h (4 Bft) 95,74 %
10.03.2023 12:24 11,4 C 10,6 C 7,8 C 84 % 987,4 hPa 0,0 l/m 0 min 2 min 83 W/m 41,8 km/h (6 Bft) 97,87 %
10.03.2023 12:26 11,3 C 10,0 C 7,2 C 84 % 987,5 hPa 0,0 l/m 0 min 2 min 60 W/m 32,2 km/h (5 Bft) 95,74 %
10.03.2023 12:28 11,2 C 9,4 C 7,2 C 85 % 987,5 hPa 0,2 l/m 0 min 2 min 52 W/m 19,3 km/h (3 Bft) 95,74 %
10.03.2023 12:30 11,2 C 9,4 C 6,7 C 86 % 987,5 hPa 0,0 l/m 0 min 2 min 41 W/m 19,3 km/h (3 Bft) 95,74 %
10.03.2023 12:32 11,0 C 9,4 C 6,7 C 86 % 987,6 hPa 0,0 l/m 0 min 2 min 34 W/m 19,3 km/h (3 Bft) 97,83 %
10.03.2023 12:34 10,9 C 9,4 C 6,7 C 87 % 987,6 hPa 0,0 l/m 0 min 2 min 35 W/m 9,7 km/h (2 Bft) 97,87 %
10.03.2023 12:36 10,8 C 8,9 C 6,1 C 87 % 987,6 hPa 0,2 l/m 0 min 2 min 40 W/m 29,0 km/h (5 Bft) 97,87 %
10.03.2023 12:38 10,7 C 8,9 C 6,1 C 88 % 987,6 hPa 0,0 l/m 0 min 2 min 46 W/m 22,5 km/h (4 Bft) 97,87 %
10.03.2023 12:40 10,5 C 8,3 C 6,1 C 88 % 987,6 hPa 0,0 l/m 0 min 2 min 52 W/m 29,0 km/h (5 Bft) 97,87 %
10.03.2023 12:42 10,4 C 8,3 C 6,1 C 89 % 987,5 hPa 0,2 l/m 0 min 2 min 59 W/m 29,0 km/h (5 Bft) 95,74 %
10.03.2023 12:44 10,3 C 8,3 C 6,1 C 89 % 987,5 hPa 0,2 l/m 0 min 2 min 62 W/m 22,5 km/h (4 Bft) 93,62 %
10.03.2023 12:46 10,3 C 8,3 C 6,1 C 90 % 987,4 hPa 0,0 l/m 0 min 2 min 64 W/m 16,1 km/h (3 Bft) 95,65 %
10.03.2023 12:48 10,2 C 8,3 C 6,1 C 90 % 987,5 hPa 0,2 l/m 0 min 2 min 72 W/m 16,1 km/h (3 Bft) 95,74 %
10.03.2023 12:50 10,2 C 8,3 C 6,1 C 90 % 987,4 hPa 0,0 l/m 0 min 2 min 90 W/m 22,5 km/h (4 Bft) 95,74 %
10.03.2023 12:52 10,1 C 8,3 C 6,1 C 91 % 987,4 hPa 0,2 l/m 0 min 2 min 119 W/m 16,1 km/h (3 Bft) 95,74 %
10.03.2023 12:54 10,1 C 8,9 C 6,1 C 91 % 987,4 hPa 0,0 l/m 0 min 2 min 150 W/m 12,9 km/h (3 Bft) 97,87 %
10.03.2023 12:56 10,1 C 8,9 C 6,7 C 91 % 987,3 hPa 0,0 l/m 0 min 2 min 186 W/m 16,1 km/h (3 Bft) 95,74 %
10.03.2023 12:58 10,1 C 8,9 C 6,7 C 92 % 987,3 hPa 0,0 l/m 0 min 2 min 179 W/m 16,1 km/h (3 Bft) 95,65 %
10.03.2023 13:00 10,1 C 8,9 C 6,7 C 92 % 987,3 hPa 0,0 l/m 0 min 2 min 141 W/m 12,9 km/h (3 Bft) 93,62 %
10.03.2023 13:02 10,1 C 8,9 C 6,7 C 92 % 987,3 hPa 0,0 l/m 0 min 2 min 110 W/m 22,5 km/h (4 Bft) 93,62 %
10.03.2023 13:04 10,1 C 8,9 C 6,7 C 93 % 987,2 hPa 0,2 l/m 0 min 2 min 115 W/m 12,9 km/h (3 Bft) 97,87 %
10.03.2023 13:06 10,1 C 8,9 C 6,7 C 93 % 987,1 hPa 0,0 l/m 0 min 2 min 148 W/m 19,3 km/h (3 Bft) 98,31 %
10.03.2023 13:08 10,1 C 8,9 C 6,7 C 93 % 987,1 hPa 0,0 l/m 0 min 2 min 156 W/m 16,1 km/h (3 Bft) 100,00 %
10.03.2023 13:10 10,0 C 8,9 C 6,7 C 93 % 987,1 hPa 0,0 l/m 0 min 2 min 137 W/m 16,1 km/h (3 Bft) 95,74 %
10.03.2023 13:12 10,0 C 8,9 C 6,7 C 93 % 987,1 hPa 0,0 l/m 0 min 2 min 120 W/m 12,9 km/h (3 Bft) 93,48 %
10.03.2023 13:14 10,0 C 8,9 C 6,7 C 93 % 987,1 hPa 0,0 l/m 0 min 2 min 88 W/m 6,4 km/h (2 Bft) 97,87 %
10.03.2023 13:16 10,0 C 8,9 C 6,7 C 94 % 987,0 hPa 0,0 l/m 0 min 2 min 80 W/m 16,1 km/h (3 Bft) 97,87 %
10.03.2023 13:18 9,9 C 8,9 C 6,7 C 94 % 987,1 hPa 0,2 l/m 0 min 2 min 91 W/m 25,7 km/h (4 Bft) 97,87 %
10.03.2023 13:20 9,8 C 8,3 C 6,1 C 94 % 987,1 hPa 0,0 l/m 0 min 2 min 106 W/m 29,0 km/h (5 Bft) 93,62 %
10.03.2023 13:22 9,8 C 8,3 C 6,1 C 93 % 987,0 hPa 0,0 l/m 0 min 2 min 105 W/m 19,3 km/h (3 Bft) 95,74 %
10.03.2023 13:24 9,7 C 8,3 C 6,1 C 94 % 986,9 hPa 0,0 l/m 0 min 2 min 100 W/m 19,3 km/h (3 Bft) 97,87 %
10.03.2023 13:26 9,7 C 8,9 C 6,1 C 94 % 986,9 hPa 0,0 l/m 0 min 2 min 98 W/m 16,1 km/h (3 Bft) 95,65 %
10.03.2023 13:28 9,7 C 8,9 C 6,1 C 94 % 986,9 hPa 0,0 l/m 0 min 0 min 99 W/m 19,3 km/h (3 Bft) 93,62 %
10.03.2023 13:30 9,7 C 8,3 C 6,1 C 94 % 986,9 hPa 0,0 l/m 0 min 0 min 89 W/m 19,3 km/h (3 Bft) 95,74 %
10.03.2023 13:32 9,7 C 8,3 C 6,1 C 94 % 986,9 hPa 0,0 l/m 0 min 2 min 89 W/m 16,1 km/h (3 Bft) 95,74 %
10.03.2023 13:34 9,7 C 8,3 C 6,1 C 94 % 986,9 hPa 0,0 l/m 0 min 2 min 75 W/m 12,9 km/h (3 Bft) 93,62 %
10.03.2023 13:36 9,6 C 8,3 C 6,1 C 94 % 986,9 hPa 0,0 l/m 0 min 2 min 50 W/m 16,1 km/h (3 Bft) 95,74 %
10.03.2023 13:38 9,6 C 8,3 C 6,1 C 94 % 986,9 hPa 0,0 l/m 0 min 2 min 54 W/m 16,1 km/h (3 Bft) 95,65 %
10.03.2023 13:40 9,6 C 8,3 C 6,1 C 94 % 986,9 hPa 0,2 l/m 0 min 2 min 84 W/m 19,3 km/h (3 Bft) 95,74 %
10.03.2023 13:42 9,6 C 8,3 C 6,1 C 94 % 986,9 hPa 0,2 l/m 0 min 2 min 111 W/m 16,1 km/h (3 Bft) 93,62 %
10.03.2023 13:44 9,6 C 8,9 C 6,1 C 95 % 986,7 hPa 0,0 l/m 0 min 2 min 143 W/m 12,9 km/h (3 Bft) 97,87 %
10.03.2023 13:46 9,6 C 8,9 C 6,1 C 95 % 986,7 hPa 0,0 l/m 0 min 2 min 142 W/m 12,9 km/h (3 Bft) 95,74 %
10.03.2023 13:48 9,6 C 8,9 C 6,1 C 95 % 986,7 hPa 0,0 l/m 0 min 2 min 141 W/m 16,1 km/h (3 Bft) 97,87 %
10.03.2023 13:50 9,6 C 8,9 C 6,7 C 95 % 986,6 hPa 0,0 l/m 0 min 0 min 161 W/m 19,3 km/h (3 Bft) 97,87 %
10.03.2023 13:52 9,6 C 8,9 C 6,7 C 95 % 986,6 hPa 0,0 l/m 0 min 0 min 150 W/m 16,1 km/h (3 Bft) 95,65 %
10.03.2023 13:54 9,6 C 8,9 C 6,7 C 95 % 986,6 hPa 0,0 l/m 0 min 0 min 127 W/m 16,1 km/h (3 Bft) 97,87 %
10.03.2023 13:56 9,6 C 8,9 C 6,7 C 95 % 986,5 hPa 0,2 l/m 0 min 0 min 131 W/m 16,1 km/h (3 Bft) 95,74 %
10.03.2023 13:58 9,6 C 8,9 C 6,7 C 95 % 986,5 hPa 0,0 l/m 0 min 0 min 127 W/m 22,5 km/h (4 Bft) 97,87 %
10.03.2023 14:00 9,6 C 8,9 C 6,7 C 96 % 986,5 hPa 0,0 l/m 0 min 0 min 114 W/m 12,9 km/h (3 Bft) 100,00 %
10.03.2023 14:02 9,6 C 8,9 C 6,7 C 96 % 986,6 hPa 0,0 l/m 0 min 0 min 82 W/m 16,1 km/h (3 Bft) 100,00 %
10.03.2023 14:04 9,6 C 8,9 C 6,7 C 96 % 986,6 hPa 0,0 l/m 0 min 0 min 70 W/m 16,1 km/h (3 Bft) 100,00 %
10.03.2023 14:06 9,6 C 8,9 C 6,7 C 96 % 986,6 hPa 0,0 l/m 0 min 0 min 72 W/m 22,5 km/h (4 Bft) 100,00 %
10.03.2023 14:08 9,6 C 8,9 C 6,7 C 96 % 986,6 hPa 0,2 l/m 0 min 0 min 78 W/m 12,9 km/h (3 Bft) 100,00 %
10.03.2023 14:10 9,6 C 8,9 C 6,7 C 96 % 986,6 hPa 0,0 l/m 0 min 0 min 80 W/m 9,7 km/h (2 Bft) 100,00 %
10.03.2023 14:12 9,6 C 8,9 C 6,7 C 96 % 986,6 hPa 0,0 l/m 0 min 0 min 72 W/m 16,1 km/h (3 Bft) 97,87 %
10.03.2023 14:14 9,6 C 8,9 C 6,7 C 96 % 986,6 hPa 0,0 l/m 0 min 0 min 70 W/m 12,9 km/h (3 Bft) 95,74 %
10.03.2023 14:16 9,6 C 8,9 C 6,7 C 96 % 986,6 hPa 0,0 l/m 0 min 0 min 78 W/m 22,5 km/h (4 Bft) 100,00 %
10.03.2023 14:18 9,6 C 8,9 C 6,7 C 96 % 986,5 hPa 0,0 l/m 0 min 0 min 75 W/m 19,3 km/h (3 Bft) 97,87 %
10.03.2023 14:20 9,6 C 8,9 C 6,7 C 96 % 986,5 hPa 0,0 l/m 0 min 0 min 75 W/m 12,9 km/h (3 Bft) 97,87 %
10.03.2023 14:22 9,6 C 8,9 C 6,7 C 96 % 986,5 hPa 0,0 l/m 0 min 0 min 60 W/m 22,5 km/h (4 Bft) 100,00 %
10.03.2023 14:24 9,6 C 8,9 C 6,7 C 96 % 986,4 hPa 0,0 l/m 0 min 0 min 48 W/m 12,9 km/h (3 Bft) 100,00 %
10.03.2023 14:26 9,6 C 8,9 C 6,7 C 96 % 986,4 hPa 0,0 l/m 0 min 0 min 61 W/m 16,1 km/h (3 Bft) 95,74 %
10.03.2023 14:28 9,6 C 8,9 C 6,7 C 96 % 986,3 hPa 0,2 l/m 0 min 0 min 83 W/m 16,1 km/h (3 Bft) 100,00 %
10.03.2023 14:30 9,6 C 8,9 C 6,7 C 96 % 986,3 hPa 0,0 l/m 0 min 0 min 77 W/m 25,7 km/h (4 Bft) 100,00 %
10.03.2023 14:32 9,6 C 8,9 C 6,7 C 97 % 986,3 hPa 0,0 l/m 0 min 0 min 63 W/m 19,3 km/h (3 Bft) 97,87 %
10.03.2023 14:34 9,6 C 8,9 C 6,7 C 97 % 986,3 hPa 0,2 l/m 0 min 0 min 65 W/m 16,1 km/h (3 Bft) 100,00 %
10.03.2023 14:36 9,6 C 8,9 C 6,7 C 97 % 986,3 hPa 0,0 l/m 0 min 2 min 71 W/m 9,7 km/h (2 Bft) 100,00 %
10.03.2023 14:38 9,6 C 8,9 C 6,7 C 97 % 986,3 hPa 0,2 l/m 0 min 2 min 73 W/m 16,1 km/h (3 Bft) 100,00 %
10.03.2023 14:40 9,6 C 8,9 C 6,7 C 97 % 986,3 hPa 0,2 l/m 0 min 2 min 62 W/m 19,3 km/h (3 Bft) 100,00 %
10.03.2023 14:42 9,6 C 8,9 C 6,7 C 97 % 986,3 hPa 0,0 l/m 0 min 0 min 69 W/m 19,3 km/h (3 Bft) 97,87 %
10.03.2023 14:44 9,7 C 8,9 C 6,7 C 97 % 986,3 hPa 0,0 l/m 0 min 2 min 59 W/m 16,1 km/h (3 Bft) 100,00 %
10.03.2023 14:46 9,7 C 8,9 C 6,7 C 97 % 986,3 hPa 0,2 l/m 0 min 2 min 64 W/m 12,9 km/h (3 Bft) 100,00 %
10.03.2023 14:48 9,7 C 8,9 C 6,7 C 97 % 986,4 hPa 0,0 l/m 0 min 2 min 71 W/m 19,3 km/h (3 Bft) 100,00 %
10.03.2023 14:50 9,7 C 8,9 C 6,7 C 97 % 986,3 hPa 0,2 l/m 0 min 2 min 86 W/m 19,3 km/h (3 Bft) 100,00 %
10.03.2023 14:52 9,7 C 8,9 C 6,7 C 97 % 986,5 hPa 0,0 l/m 0 min 0 min 68 W/m 25,7 km/h (4 Bft) 100,00 %
10.03.2023 14:54 9,8 C 8,9 C 6,7 C 97 % 986,6 hPa 0,0 l/m 0 min 2 min 52 W/m 35,4 km/h (5 Bft) 97,87 %
10.03.2023 14:56 9,8 C 8,9 C 6,7 C 97 % 986,6 hPa 0,2 l/m 0 min 2 min 46 W/m 25,7 km/h (4 Bft) 51,22 %
10.03.2023 14:58 9,8 C 8,9 C 6,7 C 97 % 986,8 hPa 0,0 l/m 0 min 2 min 44 W/m 29,0 km/h (5 Bft) 100,00 %
10.03.2023 15:00 9,7 C 8,3 C 6,7 C 97 % 986,8 hPa 0,0 l/m 0 min 2 min 41 W/m 48,3 km/h (6 Bft) 95,74 %
10.03.2023 15:02 9,4 C 8,3 C 6,1 C 97 % 986,8 hPa 0,2 l/m 0 min 2 min 46 W/m 29,0 km/h (5 Bft) 97,87 %
10.03.2023 15:04 9,3 C 8,3 C 6,1 C 97 % 986,9 hPa 0,0 l/m 0 min 2 min 29 W/m 25,7 km/h (4 Bft) 100,00 %
10.03.2023 15:06 9,3 C 8,3 C 6,1 C 97 % 987,0 hPa 0,2 l/m 0 min 2 min 29 W/m 25,7 km/h (4 Bft) 97,87 %
10.03.2023 15:08 9,2 C 7,8 C 6,1 C 97 % 987,0 hPa 0,0 l/m 0 min 2 min 34 W/m 22,5 km/h (4 Bft) 97,87 %
10.03.2023 15:10 9,1 C 7,8 C 6,1 C 97 % 987,0 hPa 0,2 l/m 0 min 2 min 35 W/m 25,7 km/h (4 Bft) 97,87 %
10.03.2023 15:12 9,1 C 7,8 C 6,1 C 97 % 987,1 hPa 0,0 l/m 0 min 2 min 34 W/m 32,2 km/h (5 Bft) 97,83 %
10.03.2023 15:14 8,9 C 7,8 C 5,6 C 97 % 987,1 hPa 0,0 l/m 0 min 2 min 33 W/m 25,7 km/h (4 Bft) 97,87 %
10.03.2023 15:16 8,9 C 7,8 C 5,6 C 97 % 987,2 hPa 0,0 l/m 0 min 2 min 38 W/m 25,7 km/h (4 Bft) 95,74 %
10.03.2023 15:18 8,8 C 7,8 C 5,6 C 97 % 987,3 hPa 0,2 l/m 0 min 2 min 41 W/m 22,5 km/h (4 Bft) 97,87 %
10.03.2023 15:20 8,8 C 7,8 C 5,6 C 97 % 987,3 hPa 0,2 l/m 0 min 2 min 35 W/m 19,3 km/h (3 Bft) 95,74 %
10.03.2023 15:22 8,7 C 7,8 C 5,6 C 97 % 987,3 hPa 0,0 l/m 0 min 2 min 38 W/m 45,1 km/h (6 Bft) 91,49 %
10.03.2023 15:24 8,6 C 7,2 C 5,6 C 97 % 987,3 hPa 0,0 l/m 0 min 2 min 50 W/m 29,0 km/h (5 Bft) 97,83 %
10.03.2023 15:26 8,6 C 7,2 C 5,6 C 96 % 987,5 hPa 0,0 l/m 0 min 2 min 52 W/m 29,0 km/h (5 Bft) 95,74 %
10.03.2023 15:28 8,5 C 7,2 C 5,6 C 96 % 987,5 hPa 0,0 l/m 0 min 2 min 65 W/m 29,0 km/h (5 Bft) 93,62 %
10.03.2023 15:30 8,4 C 7,2 C 5,6 C 96 % 987,5 hPa 0,0 l/m 0 min 2 min 74 W/m 32,2 km/h (5 Bft) 93,62 %
10.03.2023 15:32 8,4 C 7,2 C 5,6 C 96 % 987,5 hPa 0,0 l/m 0 min 2 min 85 W/m 29,0 km/h (5 Bft) 95,74 %
10.03.2023 15:34 8,3 C 7,2 C 5,0 C 96 % 987,6 hPa 0,2 l/m 0 min 2 min 91 W/m 45,1 km/h (6 Bft) 93,62 %
10.03.2023 15:36 8,3 C 7,2 C 5,6 C 96 % 987,6 hPa 0,0 l/m 0 min 2 min 61 W/m 38,6 km/h (5 Bft) 95,74 %
10.03.2023 15:38 8,2 C 7,2 C 5,0 C 96 % 987,5 hPa 0,0 l/m 0 min 2 min 53 W/m 41,8 km/h (6 Bft) 89,13 %
10.03.2023 15:40 8,1 C 6,7 C 5,0 C 96 % 987,6 hPa 0,0 l/m 0 min 2 min 54 W/m 41,8 km/h (6 Bft) 91,49 %
10.03.2023 15:42 8,1 C 6,7 C 5,0 C 96 % 987,4 hPa 0,2 l/m 0 min 2 min 50 W/m 41,8 km/h (6 Bft) 93,62 %
10.03.2023 15:44 8,0 C 6,7 C 5,0 C 96 % 987,6 hPa 0,0 l/m 0 min 2 min 50 W/m 29,0 km/h (5 Bft) 87,23 %
10.03.2023 15:46 7,9 C 6,7 C 5,0 C 96 % 987,6 hPa 0,0 l/m 0 min 2 min 49 W/m 32,2 km/h (5 Bft) 89,36 %
10.03.2023 15:48 7,9 C 6,7 C 5,0 C 96 % 987,6 hPa 0,0 l/m 0 min 2 min 46 W/m 29,0 km/h (5 Bft) 93,62 %
10.03.2023 15:50 7,8 C 6,7 C 5,0 C 96 % 987,6 hPa 0,0 l/m 0 min 2 min 58 W/m 35,4 km/h (5 Bft) 91,30 %
10.03.2023 15:52 7,8 C 6,7 C 5,0 C 96 % 987,5 hPa 0,0 l/m 0 min 2 min 50 W/m 32,2 km/h (5 Bft) 91,49 %
10.03.2023 15:54 7,8 C 6,7 C 4,4 C 96 % 987,7 hPa 0,0 l/m 0 min 2 min 43 W/m 29,0 km/h (5 Bft) 91,67 %
10.03.2023 15:56 7,7 C 6,7 C 4,4 C 96 % 987,7 hPa 0,0 l/m 0 min 2 min 34 W/m 35,4 km/h (5 Bft) 93,62 %
10.03.2023 15:58 7,7 C 6,7 C 4,4 C 96 % 987,7 hPa 0,0 l/m 0 min 2 min 33 W/m 32,2 km/h (5 Bft) 95,74 %
10.03.2023 16:00 7,7 C 6,7 C 4,4 C 96 % 987,8 hPa 0,0 l/m 0 min 2 min 27 W/m 25,7 km/h (4 Bft) 95,74 %
10.03.2023 16:02 7,6 C 6,7 C 4,4 C 95 % 988,0 hPa 0,2 l/m 0 min 2 min 23 W/m 29,0 km/h (5 Bft) 97,87 %
10.03.2023 16:04 7,6 C 6,7 C 4,4 C 95 % 988,0 hPa 0,0 l/m 0 min 2 min 24 W/m 29,0 km/h (5 Bft) 95,65 %
10.03.2023 16:06 7,5 C 6,1 C 4,4 C 96 % 988,0 hPa 0,0 l/m 0 min 2 min 27 W/m 57,9 km/h (7 Bft) 97,87 %
10.03.2023 16:08 7,5 C 6,1 C 4,4 C 96 % 988,0 hPa 0,2 l/m 0 min 2 min 36 W/m 29,0 km/h (5 Bft) 97,87 %
10.03.2023 16:10 7,5 C 6,1 C 4,4 C 96 % 988,1 hPa 0,0 l/m 0 min 2 min 42 W/m 25,7 km/h (4 Bft) 93,62 %
10.03.2023 16:12 7,4 C 6,1 C 4,4 C 96 % 988,0 hPa 0,0 l/m 0 min 2 min 44 W/m 45,1 km/h (6 Bft) 97,87 %
10.03.2023 16:14 7,4 C 6,1 C 4,4 C 96 % 988,1 hPa 0,0 l/m 0 min 2 min 37 W/m 25,7 km/h (4 Bft) 97,87 %
10.03.2023 16:16 7,4 C 6,1 C 4,4 C 96 % 988,1 hPa 0,0 l/m 0 min 2 min 32 W/m 32,2 km/h (5 Bft) 93,62 %
10.03.2023 16:18 7,4 C 6,1 C 4,4 C 96 % 988,0 hPa 0,0 l/m 0 min 2 min 31 W/m 29,0 km/h (5 Bft) 93,48 %
10.03.2023 16:20 7,3 C 6,1 C 4,4 C 95 % 987,9 hPa 0,0 l/m 0 min 2 min 33 W/m 25,7 km/h (4 Bft) 97,87 %
10.03.2023 16:22 7,3 C 6,1 C 4,4 C 96 % 987,9 hPa 0,0 l/m 0 min 2 min 35 W/m 19,3 km/h (3 Bft) 97,87 %
10.03.2023 16:24 7,3 C 6,1 C 4,4 C 96 % 987,9 hPa 0,0 l/m 0 min 2 min 30 W/m 16,1 km/h (3 Bft) 100,00 %
10.03.2023 16:26 7,3 C 6,1 C 4,4 C 96 % 987,8 hPa 0,0 l/m 0 min 2 min 27 W/m 35,4 km/h (5 Bft) 100,00 %
10.03.2023 16:28 7,2 C 6,1 C 4,4 C 96 % 987,8 hPa 0,0 l/m 0 min 2 min 24 W/m 45,1 km/h (6 Bft) 100,00 %
10.03.2023 16:30 7,2 C 6,1 C 4,4 C 96 % 987,7 hPa 0,0 l/m 0 min 2 min 25 W/m 22,5 km/h (4 Bft) 100,00 %
10.03.2023 16:32 7,2 C 6,1 C 4,4 C 96 % 987,8 hPa 0,0 l/m 0 min 2 min 25 W/m 25,7 km/h (4 Bft) 97,87 %
10.03.2023 16:34 7,2 C 6,1 C 4,4 C 96 % 987,9 hPa 0,0 l/m 0 min 0 min 25 W/m 35,4 km/h (5 Bft) 97,87 %
10.03.2023 16:36 7,2 C 6,1 C 4,4 C 96 % 987,9 hPa 0,0 l/m 0 min 2 min 24 W/m 61,2 km/h (7 Bft) 100,00 %
10.03.2023 16:38 7,2 C 6,1 C 4,4 C 96 % 987,7 hPa 0,0 l/m 0 min 2 min 22 W/m 35,4 km/h (5 Bft) 100,00 %
10.03.2023 16:40 7,2 C 6,1 C 4,4 C 96 % 987,7 hPa 0,0 l/m 0 min 2 min 16 W/m 22,5 km/h (4 Bft) 98,21 %
10.03.2023 16:42 7,2 C 6,1 C 4,4 C 96 % 987,9 hPa 0,0 l/m 0 min 2 min 12 W/m 22,5 km/h (4 Bft) 100,00 %
10.03.2023 16:44 7,2 C 6,1 C 4,4 C 96 % 988,1 hPa 0,0 l/m 0 min 2 min 11 W/m 19,3 km/h (3 Bft) 100,00 %
10.03.2023 16:46 7,2 C 6,1 C 4,4 C 96 % 988,1 hPa 0,0 l/m 0 min 2 min 9 W/m 32,2 km/h (5 Bft) 100,00 %
10.03.2023 16:48 7,2 C 6,1 C 4,4 C 96 % 988,0 hPa 0,0 l/m 0 min 2 min 8 W/m 25,7 km/h (4 Bft) 100,00 %
10.03.2023 16:50 7,1 C 6,1 C 3,9 C 96 % 988,4 hPa 0,0 l/m 0 min 2 min 7 W/m 29,0 km/h (5 Bft) 100,00 %
10.03.2023 16:52 7,0 C 5,6 C 3,9 C 96 % 988,5 hPa 0,0 l/m 0 min 2 min 12 W/m 35,4 km/h (5 Bft) 100,00 %
10.03.2023 16:54 6,7 C 5,6 C 3,3 C 96 % 988,7 hPa 0,0 l/m 0 min 2 min 14 W/m 45,1 km/h (6 Bft) 100,00 %
10.03.2023 16:56 6,3 C 5,0 C 2,8 C 95 % 988,9 hPa 0,0 l/m 0 min 2 min 16 W/m 41,8 km/h (6 Bft) 100,00 %
10.03.2023 16:58 5,7 C 4,4 C 2,2 C 95 % 989,0 hPa 0,0 l/m 0 min 2 min 19 W/m 32,2 km/h (5 Bft) 97,83 %
10.03.2023 17:00 5,3 C 3,9 C 2,2 C 95 % 989,2 hPa 0,0 l/m 0 min 2 min 17 W/m 38,6 km/h (5 Bft) 100,00 %
10.03.2023 17:02 5,1 C 3,9 C 2,2 C 95 % 989,4 hPa 0,0 l/m 0 min 2 min 14 W/m 35,4 km/h (5 Bft) 100,00 %
10.03.2023 17:04 4,8 C 3,3 C 1,7 C 95 % 989,4 hPa 0,0 l/m 0 min 2 min 16 W/m 48,3 km/h (6 Bft) 100,00 %
10.03.2023 17:06 4,6 C 3,3 C 1,7 C 95 % 989,8 hPa 0,0 l/m 0 min 2 min 22 W/m 32,2 km/h (5 Bft) 100,00 %
10.03.2023 17:08 4,4 C 3,3 C 1,7 C 95 % 989,9 hPa 0,0 l/m 0 min 2 min 31 W/m 35,4 km/h (5 Bft) 100,00 %
10.03.2023 17:10 4,2 C 3,3 C 1,7 C 95 % 990,0 hPa 0,0 l/m 0 min 2 min 30 W/m 41,8 km/h (6 Bft) 100,00 %
10.03.2023 17:12 4,1 C 3,3 C 1,1 C 95 % 990,1 hPa 0,0 l/m 0 min 2 min 19 W/m 38,6 km/h (5 Bft) 100,00 %
10.03.2023 17:14 3,9 C 2,8 C 1,1 C 95 % 990,4 hPa 0,0 l/m 0 min 2 min 13 W/m 48,3 km/h (6 Bft) 97,87 %
10.03.2023 17:16 3,9 C 2,8 C 1,1 C 95 % 990,6 hPa 0,0 l/m 0 min 2 min 11 W/m 35,4 km/h (5 Bft) 95,74 %
10.03.2023 17:18 3,8 C 2,8 C 1,1 C 95 % 990,7 hPa 0,0 l/m 0 min 2 min 11 W/m 35,4 km/h (5 Bft) 97,87 %
10.03.2023 17:20 3,6 C 2,8 C 1,1 C 95 % 990,9 hPa 0,0 l/m 0 min 2 min 12 W/m 29,0 km/h (5 Bft) 97,87 %
10.03.2023 17:22 3,4 C 2,2 C 0,6 C 95 % 991,2 hPa 0,2 l/m 0 min 2 min 15 W/m 29,0 km/h (5 Bft) 95,74 %
10.03.2023 17:24 3,3 C 2,2 C 0,6 C 95 % 991,2 hPa 0,0 l/m 0 min 2 min 14 W/m 35,4 km/h (5 Bft) 95,65 %
10.03.2023 17:26 3,2 C 2,2 C 0,6 C 96 % 991,3 hPa 0,0 l/m 0 min 2 min 15 W/m 45,1 km/h (6 Bft) 95,74 %
10.03.2023 17:28 3,1 C 2,2 C 0,6 C 95 % 991,6 hPa 0,0 l/m 0 min 2 min 10 W/m 32,2 km/h (5 Bft) 97,87 %
10.03.2023 17:30 2,9 C 2,2 C 0,0 C 95 % 991,6 hPa 0,0 l/m 0 min 2 min 9 W/m 57,9 km/h (7 Bft) 91,49 %
10.03.2023 17:32 2,8 C 1,7 C 0,0 C 96 % 991,9 hPa 0,0 l/m 0 min 2 min 7 W/m 38,6 km/h (5 Bft) 93,62 %
10.03.2023 17:34 2,7 C 1,7 C 0,0 C 95 % 992,1 hPa 0,2 l/m 0 min 2 min 7 W/m 29,0 km/h (5 Bft) 97,14 %
10.03.2023 17:36 2,6 C 1,7 C 0,0 C 96 % 992,1 hPa 0,0 l/m 0 min 2 min 9 W/m 51,5 km/h (7 Bft) 96,00 %
10.03.2023 17:38 2,4 C 1,7 C 0,0 C 95 % 992,4 hPa 0,0 l/m 0 min 2 min 9 W/m 45,1 km/h (6 Bft) 97,87 %
10.03.2023 17:40 2,3 C 1,1 C 0,0 C 95 % 992,7 hPa 0,0 l/m 0 min 2 min 9 W/m 35,4 km/h (5 Bft) 97,83 %
10.03.2023 17:42 2,2 C 1,1 C 0,0 C 96 % 992,9 hPa 0,0 l/m 0 min 2 min 9 W/m 48,3 km/h (6 Bft) 95,74 %
10.03.2023 17:44 2,1 C 1,1 C -0,6 C 95 % 993,0 hPa 0,0 l/m 0 min 2 min 8 W/m 38,6 km/h (5 Bft) 100,00 %
10.03.2023 17:46 1,9 C 1,1 C -0,6 C 95 % 993,2 hPa 0,0 l/m 0 min 2 min 10 W/m 45,1 km/h (6 Bft) 100,00 %
10.03.2023 17:48 1,9 C 1,1 C -0,6 C 96 % 993,5 hPa 0,0 l/m 0 min 2 min 12 W/m 29,0 km/h (5 Bft) 100,00 %
10.03.2023 17:50 1,8 C 1,1 C -0,6 C 95 % 993,6 hPa 0,0 l/m 0 min 2 min 12 W/m 45,1 km/h (6 Bft) 100,00 %
10.03.2023 17:52 1,7 C 1,1 C -1,1 C 95 % 993,7 hPa 0,0 l/m 0 min 2 min 12 W/m 48,3 km/h (6 Bft) 100,00 %
10.03.2023 17:54 1,7 C 1,1 C -0,6 C 96 % 993,8 hPa 0,0 l/m 0 min 2 min 11 W/m 29,0 km/h (5 Bft) 97,83 %
10.03.2023 17:56 1,6 C 1,1 C -0,6 C 96 % 994,0 hPa 0,2 l/m 0 min 2 min 9 W/m 41,8 km/h (6 Bft) 100,00 %
10.03.2023 17:58 1,6 C 0,6 C -1,1 C 96 % 994,1 hPa 0,0 l/m 0 min 2 min 11 W/m 51,5 km/h (7 Bft) 95,74 %
10.03.2023 18:00 1,5 C 0,6 C -1,1 C 96 % 994,2 hPa 0,0 l/m 0 min 2 min 10 W/m 29,0 km/h (5 Bft) 97,87 %
10.03.2023 18:02 1,4 C 0,6 C -1,1 C 96 % 994,3 hPa 0,0 l/m 0 min 2 min 7 W/m 54,7 km/h (7 Bft) 97,87 %
10.03.2023 18:04 1,3 C 0,6 C -1,1 C 96 % 994,3 hPa 0,0 l/m 0 min 2 min 5 W/m 35,4 km/h (5 Bft) 100,00 %
10.03.2023 18:07 1,2 C 0,6 C -1,1 C 96 % 994,6 hPa 0,0 l/m 0 min 3 min 0 W/m 51,5 km/h (7 Bft) 97,14 %
10.03.2023 18:08 1,2 C 0,6 C -1,1 C 96 % 994,6 hPa 0,0 l/m 0 min 1 min 0 W/m 32,2 km/h (5 Bft) 100,00 %
10.03.2023 18:12 1,1 C 0,6 C -1,1 C 96 % 994,9 hPa 0,2 l/m 0 min 4 min 0 W/m 41,8 km/h (6 Bft) 100,00 %
10.03.2023 18:14 1,1 C 0,6 C -1,7 C 96 % 995,0 hPa 0,0 l/m 0 min 2 min 0 W/m 38,6 km/h (5 Bft) 95,74 %
10.03.2023 18:16 1,1 C 0,0 C -1,7 C 96 % 995,1 hPa 0,0 l/m 0 min 2 min 0 W/m 48,3 km/h (6 Bft) 97,87 %
10.03.2023 18:18 1,0 C 0,0 C -1,7 C 96 % 995,3 hPa 0,0 l/m 0 min 2 min 0 W/m 38,6 km/h (5 Bft) 97,87 %
10.03.2023 18:20 0,9 C 0,0 C -1,7 C 96 % 995,5 hPa 0,0 l/m 0 min 2 min 0 W/m 48,3 km/h (6 Bft) 97,87 %
10.03.2023 18:22 0,9 C 0,0 C -1,7 C 96 % 995,5 hPa 0,0 l/m 0 min 2 min 0 W/m 41,8 km/h (6 Bft) 93,48 %
10.03.2023 18:24 0,9 C 0,0 C -1,7 C 96 % 995,6 hPa 0,0 l/m 0 min 2 min 0 W/m 45,1 km/h (6 Bft) 89,36 %
10.03.2023 18:26 0,8 C 0,0 C -1,7 C 96 % 995,8 hPa 0,0 l/m 0 min 2 min 0 W/m 48,3 km/h (6 Bft) 44,83 %
10.03.2023 18:28 0,8 C 0,0 C -1,7 C 96 % 996,0 hPa 0,0 l/m 0 min 2 min 0 W/m 41,8 km/h (6 Bft) 95,74 %
10.03.2023 18:30 0,8 C 0,0 C -1,7 C 96 % 996,1 hPa 0,0 l/m 0 min 2 min 0 W/m 57,9 km/h (7 Bft) 95,74 %
10.03.2023 18:32 0,8 C 0,0 C -1,7 C 96 % 996,1 hPa 0,0 l/m 0 min 2 min 0 W/m 35,4 km/h (5 Bft) 91,49 %
10.03.2023 18:34 0,8 C 0,0 C -1,7 C 96 % 996,2 hPa 0,0 l/m 0 min 2 min 0 W/m 38,6 km/h (5 Bft) 93,48 %
10.03.2023 18:36 0,8 C 0,0 C -1,7 C 96 % 996,4 hPa 0,0 l/m 0 min 2 min 0 W/m 51,5 km/h (7 Bft) 97,87 %
10.03.2023 18:38 0,8 C 0,0 C -1,7 C 96 % 996,6 hPa 0,0 l/m 0 min 2 min 0 W/m 41,8 km/h (6 Bft) 93,62 %
10.03.2023 18:40 0,8 C 0,0 C -1,7 C 96 % 996,6 hPa 0,0 l/m 0 min 2 min 0 W/m 54,7 km/h (7 Bft) 95,74 %
10.03.2023 18:42 0,8 C 0,0 C -1,7 C 96 % 996,9 hPa 0,0 l/m 0 min 2 min 0 W/m 45,1 km/h (6 Bft) 95,74 %
10.03.2023 18:44 0,8 C 0,0 C -1,7 C 96 % 996,9 hPa 0,0 l/m 0 min 2 min 0 W/m 32,2 km/h (5 Bft) 95,74 %
10.03.2023 18:46 0,8 C 0,0 C -1,7 C 97 % 997,0 hPa 0,0 l/m 0 min 2 min 0 W/m 29,0 km/h (5 Bft) 91,49 %
10.03.2023 18:48 0,8 C 0,0 C -1,7 C 97 % 997,1 hPa 0,0 l/m 0 min 2 min 0 W/m 35,4 km/h (5 Bft) 95,65 %
10.03.2023 18:50 0,8 C 0,6 C -1,7 C 97 % 997,2 hPa 0,2 l/m 0 min 2 min 0 W/m 35,4 km/h (5 Bft) 95,74 %
10.03.2023 18:52 0,9 C 0,6 C -1,1 C 97 % 997,4 hPa 0,0 l/m 0 min 2 min 0 W/m 45,1 km/h (6 Bft) 94,00 %
10.03.2023 18:54 0,9 C 0,6 C -1,1 C 97 % 997,5 hPa 0,0 l/m 0 min 2 min 0 W/m 32,2 km/h (5 Bft) 95,74 %
10.03.2023 18:56 0,9 C 0,6 C -1,7 C 97 % 997,7 hPa 0,0 l/m 0 min 2 min 0 W/m 35,4 km/h (5 Bft) 93,62 %
10.03.2023 18:58 0,9 C 0,6 C -1,7 C 97 % 997,9 hPa 0,0 l/m 0 min 2 min 0 W/m 32,2 km/h (5 Bft) 95,74 %
10.03.2023 19:00 0,9 C 0,6 C -1,7 C 97 % 998,0 hPa 0,0 l/m 0 min 2 min 0 W/m 29,0 km/h (5 Bft) 95,65 %
10.03.2023 19:02 0,9 C 0,6 C -1,7 C 96 % 998,1 hPa 0,0 l/m 0 min 2 min 0 W/m 22,5 km/h (4 Bft) 95,74 %
10.03.2023 19:04 0,9 C 0,6 C -1,7 C 96 % 998,2 hPa 0,0 l/m 0 min 2 min 0 W/m 32,2 km/h (5 Bft) 95,74 %
10.03.2023 19:06 1,0 C 0,6 C -1,1 C 96 % 998,4 hPa 0,0 l/m 0 min 2 min 0 W/m 32,2 km/h (5 Bft) 93,22 %
10.03.2023 19:08 1,0 C 0,6 C -1,1 C 96 % 998,5 hPa 0,0 l/m 0 min 2 min 0 W/m 29,0 km/h (5 Bft) 94,29 %
10.03.2023 19:10 1,0 C 0,6 C -1,1 C 96 % 998,5 hPa 0,0 l/m 0 min 2 min 0 W/m 32,2 km/h (5 Bft) 93,62 %
10.03.2023 19:12 1,0 C 0,6 C -1,1 C 96 % 998,7 hPa 0,0 l/m 0 min 0 min 0 W/m 38,6 km/h (5 Bft) 95,74 %
10.03.2023 19:14 1,0 C 0,6 C -1,7 C 96 % 998,8 hPa 0,0 l/m 0 min 2 min 0 W/m 29,0 km/h (5 Bft) 91,30 %
10.03.2023 19:16 1,0 C 0,6 C -1,1 C 96 % 998,8 hPa 0,0 l/m 0 min 2 min 0 W/m 45,1 km/h (6 Bft) 95,83 %
10.03.2023 19:18 0,9 C 0,6 C -1,7 C 96 % 998,9 hPa 0,0 l/m 0 min 2 min 0 W/m 38,6 km/h (5 Bft) 95,74 %
10.03.2023 19:20 0,9 C 0,6 C -1,7 C 96 % 999,1 hPa 0,0 l/m 0 min 0 min 0 W/m 22,5 km/h (4 Bft) 93,62 %
10.03.2023 19:22 0,9 C 0,6 C -1,7 C 96 % 999,2 hPa 0,0 l/m 0 min 2 min 0 W/m 51,5 km/h (7 Bft) 95,74 %
10.03.2023 19:24 0,9 C 0,6 C -1,7 C 96 % 999,2 hPa 0,0 l/m 0 min 2 min 0 W/m 35,4 km/h (5 Bft) 97,87 %
10.03.2023 19:26 0,9 C 0,6 C -1,7 C 96 % 999,4 hPa 0,0 l/m 0 min 2 min 0 W/m 22,5 km/h (4 Bft) 95,74 %
10.03.2023 19:28 1,0 C 0,6 C -1,7 C 96 % 999,5 hPa 0,0 l/m 0 min 2 min 0 W/m 32,2 km/h (5 Bft) 97,83 %
10.03.2023 19:30 1,0 C 0,6 C -1,1 C 96 % 999,6 hPa 0,0 l/m 0 min 0 min 0 W/m 35,4 km/h (5 Bft) 100,00 %
10.03.2023 19:32 1,1 C 0,6 C -1,1 C 96 % 999,8 hPa 0,0 l/m 0 min 2 min 0 W/m 25,7 km/h (4 Bft) 100,00 %
10.03.2023 19:34 1,1 C 0,6 C -1,1 C 96 % 999,9 hPa 0,0 l/m 0 min 2 min 0 W/m 29,0 km/h (5 Bft) 100,00 %
10.03.2023 19:36 1,1 C 0,6 C -1,1 C 96 % 1000,0 hPa 0,0 l/m 0 min 0 min 0 W/m 25,7 km/h (4 Bft) 97,87 %
10.03.2023 19:38 1,1 C 0,6 C -1,1 C 96 % 1000,0 hPa 0,0 l/m 0 min 2 min 0 W/m 29,0 km/h (5 Bft) 100,00 %
10.03.2023 19:40 1,1 C 0,6 C -1,1 C 96 % 1000,2 hPa 0,0 l/m 0 min 0 min 0 W/m 35,4 km/h (5 Bft) 97,83 %
10.03.2023 19:42 1,1 C 0,6 C -1,1 C 96 % 1000,2 hPa 0,0 l/m 0 min 0 min 0 W/m 29,0 km/h (5 Bft) 97,87 %
10.03.2023 19:44 1,1 C 0,6 C -1,1 C 96 % 1000,3 hPa 0,0 l/m 0 min 0 min 0 W/m 25,7 km/h (4 Bft) 100,00 %
10.03.2023 19:46 1,1 C 0,6 C -1,1 C 96 % 1000,3 hPa 0,0 l/m 0 min 0 min 0 W/m 35,4 km/h (5 Bft) 100,00 %
10.03.2023 19:48 1,1 C 0,6 C -1,1 C 96 % 1000,3 hPa 0,0 l/m 0 min 0 min 0 W/m 19,3 km/h (3 Bft) 100,00 %
10.03.2023 19:50 1,1 C 0,6 C -1,1 C 96 % 1000,4 hPa 0,0 l/m 0 min 0 min 0 W/m 25,7 km/h (4 Bft) 100,00 %
10.03.2023 19:52 1,1 C 0,6 C -1,1 C 96 % 1000,4 hPa 0,0 l/m 0 min 0 min 0 W/m 32,2 km/h (5 Bft) 97,87 %
10.03.2023 19:54 1,2 C 0,6 C -1,1 C 96 % 1000,4 hPa 0,0 l/m 0 min 0 min 0 W/m 22,5 km/h (4 Bft) 100,00 %
10.03.2023 19:56 1,2 C 0,6 C -1,1 C 96 % 1000,4 hPa 0,0 l/m 0 min 0 min 0 W/m 22,5 km/h (4 Bft) 87,23 %
10.03.2023 19:58 1,2 C 0,6 C -1,1 C 96 % 1000,5 hPa 0,0 l/m 0 min 0 min 0 W/m 16,1 km/h (3 Bft) 65,85 %
10.03.2023 20:00 1,2 C 0,6 C -1,1 C 96 % 1000,6 hPa 0,0 l/m 0 min 0 min 0 W/m 29,0 km/h (5 Bft) 100,00 %
10.03.2023 20:02 1,2 C 0,6 C -1,1 C 96 % 1000,6 hPa 0,0 l/m 0 min 0 min 0 W/m 29,0 km/h (5 Bft) 100,00 %
10.03.2023 20:04 1,2 C 0,6 C -1,1 C 96 % 1000,7 hPa 0,0 l/m 0 min 0 min 0 W/m 35,4 km/h (5 Bft) 100,00 %
10.03.2023 20:06 1,2 C 0,6 C -1,1 C 96 % 1000,8 hPa 0,0 l/m 0 min 0 min 0 W/m 22,5 km/h (4 Bft) 100,00 %
10.03.2023 20:08 1,2 C 0,6 C -1,1 C 96 % 1000,9 hPa 0,0 l/m 0 min 0 min 0 W/m 25,7 km/h (4 Bft) 100,00 %
10.03.2023 20:10 1,2 C 0,6 C -1,1 C 96 % 1000,8 hPa 0,0 l/m 0 min 0 min 0 W/m 22,5 km/h (4 Bft) 100,00 %
10.03.2023 20:12 1,2 C 0,6 C -1,1 C 96 % 1000,9 hPa 0,0 l/m 0 min 0 min 0 W/m 29,0 km/h (5 Bft) 100,00 %
10.03.2023 20:14 1,2 C 0,6 C -1,1 C 96 % 1001,1 hPa 0,0 l/m 0 min 0 min 0 W/m 32,2 km/h (5 Bft) 100,00 %
10.03.2023 20:16 1,2 C 0,6 C -1,1 C 96 % 1001,1 hPa 0,0 l/m 0 min 0 min 0 W/m 29,0 km/h (5 Bft) 100,00 %
10.03.2023 20:18 1,2 C 0,6 C -1,1 C 95 % 1001,2 hPa 0,0 l/m 0 min 0 min 0 W/m 25,7 km/h (4 Bft) 100,00 %
10.03.2023 20:20 1,2 C 0,6 C -1,1 C 95 % 1001,2 hPa 0,0 l/m 0 min 0 min 0 W/m 9,7 km/h (2 Bft) 100,00 %
10.03.2023 20:22 1,2 C 0,6 C -1,1 C 95 % 1001,3 hPa 0,0 l/m 0 min 0 min 0 W/m 16,1 km/h (3 Bft) 100,00 %
10.03.2023 20:24 1,2 C 0,6 C -1,1 C 95 % 1001,3 hPa 0,0 l/m 0 min 0 min 0 W/m 16,1 km/h (3 Bft) 100,00 %
10.03.2023 20:26 1,2 C 0,6 C -1,1 C 95 % 1001,3 hPa 0,0 l/m 0 min 0 min 0 W/m 35,4 km/h (5 Bft) 100,00 %
10.03.2023 20:28 1,2 C 0,6 C -1,1 C 96 % 1001,4 hPa 0,0 l/m 0 min 2 min 0 W/m 25,7 km/h (4 Bft) 100,00 %
10.03.2023 20:30 1,2 C 0,6 C -1,1 C 96 % 1001,4 hPa 0,0 l/m 0 min 0 min 0 W/m 22,5 km/h (4 Bft) 97,87 %
10.03.2023 20:32 1,2 C 0,6 C -1,1 C 96 % 1001,5 hPa 0,2 l/m 0 min 2 min 0 W/m 22,5 km/h (4 Bft) 97,87 %
10.03.2023 20:34 1,2 C 0,6 C -1,1 C 96 % 1001,5 hPa 0,0 l/m 0 min 2 min 0 W/m 32,2 km/h (5 Bft) 97,92 %
10.03.2023 20:36 1,2 C 0,6 C -1,1 C 96 % 1001,7 hPa 0,0 l/m 0 min 2 min 0 W/m 35,4 km/h (5 Bft) 97,83 %
10.03.2023 20:38 1,2 C 0,6 C -1,1 C 96 % 1001,8 hPa 0,0 l/m 0 min 2 min 0 W/m 29,0 km/h (5 Bft) 100,00 %
10.03.2023 20:40 1,2 C 0,6 C -1,1 C 95 % 1001,8 hPa 0,0 l/m 0 min 2 min 0 W/m 29,0 km/h (5 Bft) 98,00 %
10.03.2023 20:42 1,2 C 0,6 C -1,1 C 95 % 1001,8 hPa 0,0 l/m 0 min 2 min 0 W/m 19,3 km/h (3 Bft) 97,87 %
10.03.2023 20:44 1,2 C 0,6 C -1,1 C 95 % 1001,9 hPa 0,0 l/m 0 min 2 min 0 W/m 29,0 km/h (5 Bft) 89,36 %
10.03.2023 20:46 1,2 C 0,6 C -1,1 C 95 % 1002,0 hPa 0,0 l/m 0 min 2 min 0 W/m 12,9 km/h (3 Bft) 93,62 %
10.03.2023 20:48 1,2 C 0,6 C -1,1 C 95 % 1002,0 hPa 0,0 l/m 0 min 2 min 0 W/m 29,0 km/h (5 Bft) 95,65 %
10.03.2023 20:50 1,2 C 0,6 C -1,1 C 95 % 1002,1 hPa 0,0 l/m 0 min 2 min 0 W/m 16,1 km/h (3 Bft) 95,24 %
10.03.2023 20:52 1,2 C 0,6 C -1,1 C 95 % 1002,1 hPa 0,0 l/m 0 min 2 min 0 W/m 19,3 km/h (3 Bft) 93,62 %
10.03.2023 20:54 1,2 C 0,6 C -1,1 C 95 % 1002,1 hPa 0,0 l/m 0 min 2 min 0 W/m 29,0 km/h (5 Bft) 95,74 %
10.03.2023 20:56 1,2 C 0,6 C -1,1 C 95 % 1002,1 hPa 0,0 l/m 0 min 2 min 0 W/m 19,3 km/h (3 Bft) 90,20 %
10.03.2023 20:58 1,2 C 0,6 C -1,1 C 95 % 1002,1 hPa 0,0 l/m 0 min 2 min 0 W/m 19,3 km/h (3 Bft) 95,74 %
10.03.2023 21:00 1,2 C 0,6 C -1,1 C 95 % 1002,1 hPa 0,0 l/m 0 min 2 min 0 W/m 19,3 km/h (3 Bft) 95,74 %
10.03.2023 21:02 1,2 C 0,6 C -1,1 C 95 % 1002,3 hPa 0,0 l/m 0 min 2 min 0 W/m 19,3 km/h (3 Bft) 91,30 %
10.03.2023 21:04 1,2 C 0,6 C -1,1 C 95 % 1002,3 hPa 0,0 l/m 0 min 2 min 0 W/m 19,3 km/h (3 Bft) 95,83 %
10.03.2023 21:06 1,2 C 0,6 C -1,1 C 95 % 1002,3 hPa 0,0 l/m 0 min 2 min 0 W/m 16,1 km/h (3 Bft) 95,74 %
10.03.2023 21:08 1,2 C 0,6 C -1,1 C 95 % 1002,4 hPa 0,0 l/m 0 min 2 min 0 W/m 22,5 km/h (4 Bft) 95,74 %
10.03.2023 21:10 1,2 C 0,6 C -1,1 C 95 % 1002,4 hPa 0,0 l/m 0 min 2 min 0 W/m 32,2 km/h (5 Bft) 93,62 %
10.03.2023 21:12 1,2 C 0,6 C -1,1 C 95 % 1002,4 hPa 0,0 l/m 0 min 2 min 0 W/m 16,1 km/h (3 Bft) 95,74 %
10.03.2023 21:14 1,2 C 0,6 C -1,1 C 95 % 1002,4 hPa 0,0 l/m 0 min 2 min 0 W/m 16,1 km/h (3 Bft) 97,14 %
10.03.2023 21:16 1,2 C 0,6 C -1,1 C 95 % 1002,5 hPa 0,0 l/m 0 min 2 min 0 W/m 25,7 km/h (4 Bft) 97,87 %
10.03.2023 21:18 1,2 C 0,6 C -1,1 C 95 % 1002,5 hPa 0,0 l/m 0 min 2 min 0 W/m 16,1 km/h (3 Bft) 95,74 %
10.03.2023 21:20 1,2 C 0,6 C -1,1 C 95 % 1002,5 hPa 0,0 l/m 0 min 2 min 0 W/m 22,5 km/h (4 Bft) 95,65 %
10.03.2023 21:22 1,2 C 0,6 C -1,1 C 96 % 1002,5 hPa 0,0 l/m 0 min 2 min 0 W/m 22,5 km/h (4 Bft) 95,74 %
10.03.2023 21:24 1,2 C 0,6 C -1,1 C 96 % 1002,5 hPa 0,0 l/m 0 min 2 min 0 W/m 19,3 km/h (3 Bft) 95,74 %
10.03.2023 21:26 1,2 C 0,6 C -1,1 C 96 % 1002,7 hPa 0,0 l/m 0 min 2 min 0 W/m 19,3 km/h (3 Bft) 97,87 %
10.03.2023 21:28 1,2 C 0,6 C -1,1 C 96 % 1002,7 hPa 0,0 l/m 0 min 2 min 0 W/m 12,9 km/h (3 Bft) 100,00 %
10.03.2023 21:30 1,2 C 0,6 C -1,1 C 96 % 1002,7 hPa 0,0 l/m 0 min 2 min 0 W/m 16,1 km/h (3 Bft) 100,00 %
10.03.2023 21:32 1,2 C 0,6 C -1,1 C 96 % 1002,8 hPa 0,0 l/m 0 min 2 min 0 W/m 19,3 km/h (3 Bft) 100,00 %
10.03.2023 21:34 1,2 C 0,6 C -1,1 C 96 % 1002,7 hPa 0,0 l/m 0 min 2 min 0 W/m 19,3 km/h (3 Bft) 100,00 %
10.03.2023 21:36 1,2 C 0,6 C -1,1 C 96 % 1002,8 hPa 0,0 l/m 0 min 2 min 0 W/m 16,1 km/h (3 Bft) 100,00 %
10.03.2023 21:38 1,2 C 0,6 C -1,1 C 96 % 1002,8 hPa 0,0 l/m 0 min 2 min 0 W/m 16,1 km/h (3 Bft) 97,87 %
10.03.2023 21:40 1,2 C 0,6 C -1,1 C 96 % 1002,9 hPa 0,0 l/m 0 min 2 min 0 W/m 19,3 km/h (3 Bft) 100,00 %
10.03.2023 21:42 1,3 C 1,1 C -0,6 C 96 % 1003,0 hPa 0,0 l/m 0 min 2 min 0 W/m 19,3 km/h (3 Bft) 97,87 %
10.03.2023 21:44 1,3 C 1,1 C -0,6 C 96 % 1003,0 hPa 0,0 l/m 0 min 2 min 0 W/m 22,5 km/h (4 Bft) 100,00 %
10.03.2023 21:46 1,4 C 1,1 C -0,6 C 96 % 1003,1 hPa 0,0 l/m 0 min 2 min 0 W/m 22,5 km/h (4 Bft) 97,87 %
10.03.2023 21:48 1,3 C 1,1 C -0,6 C 96 % 1003,0 hPa 0,0 l/m 0 min 2 min 0 W/m 32,2 km/h (5 Bft) 100,00 %
10.03.2023 21:50 1,4 C 1,1 C -0,6 C 96 % 1003,1 hPa 0,0 l/m 0 min 2 min 0 W/m 22,5 km/h (4 Bft) 100,00 %
10.03.2023 21:52 1,4 C 1,1 C -0,6 C 96 % 1003,1 hPa 0,0 l/m 0 min 2 min 0 W/m 19,3 km/h (3 Bft) 97,87 %
10.03.2023 21:54 1,4 C 1,1 C -1,1 C 96 % 1003,1 hPa 0,0 l/m 0 min 2 min 0 W/m 25,7 km/h (4 Bft) 97,62 %
10.03.2023 21:56 1,3 C 1,1 C -1,1 C 96 % 1003,1 hPa 0,0 l/m 0 min 2 min 0 W/m 22,5 km/h (4 Bft) 97,87 %
10.03.2023 21:58 1,3 C 1,1 C -1,1 C 96 % 1003,2 hPa 0,0 l/m 0 min 2 min 0 W/m 19,3 km/h (3 Bft) 98,04 %
10.03.2023 22:00 1,3 C 1,1 C -1,1 C 96 % 1003,3 hPa 0,0 l/m 0 min 2 min 0 W/m 32,2 km/h (5 Bft) 97,87 %
10.03.2023 22:02 1,3 C 1,1 C -1,1 C 96 % 1003,4 hPa 0,0 l/m 0 min 2 min 0 W/m 16,1 km/h (3 Bft) 93,62 %
10.03.2023 22:04 1,3 C 1,1 C -1,1 C 96 % 1003,3 hPa 0,0 l/m 0 min 2 min 0 W/m 25,7 km/h (4 Bft) 97,96 %
10.03.2023 22:06 1,3 C 1,1 C -1,1 C 96 % 1003,4 hPa 0,0 l/m 0 min 2 min 0 W/m 22,5 km/h (4 Bft) 97,92 %
10.03.2023 22:08 1,3 C 1,1 C -1,1 C 96 % 1003,5 hPa 0,0 l/m 0 min 0 min 0 W/m 19,3 km/h (3 Bft) 97,92 %
10.03.2023 22:10 1,3 C 0,6 C -1,1 C 96 % 1003,5 hPa 0,0 l/m 0 min 2 min 0 W/m 19,3 km/h (3 Bft) 97,87 %
10.03.2023 22:12 1,2 C 0,6 C -1,1 C 96 % 1003,5 hPa 0,0 l/m 0 min 2 min 0 W/m 35,4 km/h (5 Bft) 97,87 %
10.03.2023 22:14 1,2 C 0,6 C -1,1 C 96 % 1003,6 hPa 0,0 l/m 0 min 2 min 0 W/m 22,5 km/h (4 Bft) 94,44 %
10.03.2023 22:16 1,2 C 0,6 C -1,1 C 96 % 1003,6 hPa 0,0 l/m 0 min 2 min 0 W/m 16,1 km/h (3 Bft) 97,96 %
10.03.2023 22:18 1,2 C 0,6 C -1,1 C 96 % 1003,6 hPa 0,0 l/m 0 min 2 min 0 W/m 22,5 km/h (4 Bft) 97,87 %
10.03.2023 22:20 1,2 C 0,6 C -1,1 C 96 % 1003,6 hPa 0,0 l/m 0 min 2 min 0 W/m 19,3 km/h (3 Bft) 95,74 %
10.03.2023 22:22 1,2 C 0,6 C -1,1 C 96 % 1003,6 hPa 0,0 l/m 0 min 2 min 0 W/m 16,1 km/h (3 Bft) 97,87 %
10.03.2023 22:24 1,2 C 0,6 C -1,1 C 96 % 1003,7 hPa 0,0 l/m 0 min 2 min 0 W/m 16,1 km/h (3 Bft) 98,11 %
10.03.2023 22:26 1,2 C 0,6 C -1,1 C 96 % 1003,8 hPa 0,0 l/m 0 min 2 min 0 W/m 19,3 km/h (3 Bft) 95,74 %
10.03.2023 22:28 1,2 C 0,6 C -1,1 C 96 % 1003,8 hPa 0,0 l/m 0 min 2 min 0 W/m 19,3 km/h (3 Bft) 93,62 %
10.03.2023 22:30 1,2 C 0,6 C -1,1 C 96 % 1003,8 hPa 0,0 l/m 0 min 2 min 0 W/m 19,3 km/h (3 Bft) 95,74 %
10.03.2023 22:32 1,2 C 0,6 C -1,1 C 96 % 1003,9 hPa 0,0 l/m 0 min 2 min 0 W/m 19,3 km/h (3 Bft) 95,74 %
10.03.2023 22:34 1,1 C 0,6 C -1,1 C 96 % 1003,8 hPa 0,0 l/m 0 min 2 min 0 W/m 29,0 km/h (5 Bft) 93,62 %
10.03.2023 22:36 1,1 C 0,6 C -1,1 C 96 % 1003,9 hPa 0,0 l/m 0 min 2 min 0 W/m 22,5 km/h (4 Bft) 95,74 %
10.03.2023 22:38 1,1 C 0,6 C -1,1 C 96 % 1003,8 hPa 0,0 l/m 0 min 2 min 0 W/m 25,7 km/h (4 Bft) 93,62 %
10.03.2023 22:40 1,1 C 0,6 C -1,1 C 96 % 1003,9 hPa 0,0 l/m 0 min 2 min 0 W/m 19,3 km/h (3 Bft) 95,74 %
10.03.2023 22:42 1,1 C 0,6 C -1,1 C 96 % 1004,0 hPa 0,0 l/m 0 min 2 min 0 W/m 16,1 km/h (3 Bft) 95,74 %
10.03.2023 22:44 1,1 C 0,6 C -1,1 C 96 % 1004,0 hPa 0,0 l/m 0 min 2 min 0 W/m 19,3 km/h (3 Bft) 97,87 %
10.03.2023 22:46 1,1 C 0,6 C -1,1 C 96 % 1004,1 hPa 0,0 l/m 0 min 2 min 0 W/m 19,3 km/h (3 Bft) 95,74 %
10.03.2023 22:48 1,1 C 0,6 C -1,1 C 95 % 1004,2 hPa 0,0 l/m 0 min 2 min 0 W/m 25,7 km/h (4 Bft) 94,87 %
10.03.2023 22:50 1,1 C 0,6 C -1,1 C 95 % 1004,3 hPa 0,0 l/m 0 min 2 min 0 W/m 12,9 km/h (3 Bft) 95,74 %
10.03.2023 22:52 1,1 C 0,6 C -1,1 C 95 % 1004,3 hPa 0,0 l/m 0 min 2 min 0 W/m 16,1 km/h (3 Bft) 95,65 %
10.03.2023 22:54 1,1 C 0,6 C -1,1 C 95 % 1004,4 hPa 0,0 l/m 0 min 2 min 0 W/m 16,1 km/h (3 Bft) 93,62 %
10.03.2023 22:56 1,1 C 0,6 C -1,1 C 95 % 1004,4 hPa 0,0 l/m 0 min 2 min 0 W/m 22,5 km/h (4 Bft) 97,87 %
10.03.2023 22:58 1,1 C 0,6 C -1,1 C 95 % 1004,5 hPa 0,0 l/m 0 min 2 min 0 W/m 19,3 km/h (3 Bft) 97,87 %
10.03.2023 23:00 1,1 C 0,6 C -1,1 C 95 % 1004,5 hPa 0,0 l/m 0 min 2 min 0 W/m 29,0 km/h (5 Bft) 97,87 %
10.03.2023 23:02 1,1 C 0,6 C -1,1 C 95 % 1004,5 hPa 0,0 l/m 0 min 2 min 0 W/m 35,4 km/h (5 Bft) 95,74 %
10.03.2023 23:04 1,1 C 0,6 C -1,1 C 95 % 1004,6 hPa 0,0 l/m 0 min 2 min 0 W/m 22,5 km/h (4 Bft) 100,00 %
10.03.2023 23:06 1,1 C 0,6 C -1,1 C 95 % 1004,8 hPa 0,0 l/m 0 min 2 min 0 W/m 25,7 km/h (4 Bft) 97,87 %
10.03.2023 23:08 1,1 C 0,6 C -1,1 C 95 % 1004,7 hPa 0,0 l/m 0 min 2 min 0 W/m 25,7 km/h (4 Bft) 100,00 %
10.03.2023 23:10 1,1 C 0,6 C -1,1 C 95 % 1004,7 hPa 0,0 l/m 0 min 2 min 0 W/m 19,3 km/h (3 Bft) 100,00 %
10.03.2023 23:12 1,1 C 0,6 C -1,1 C 95 % 1004,7 hPa 0,0 l/m 0 min 2 min 0 W/m 19,3 km/h (3 Bft) 94,92 %
10.03.2023 23:14 1,1 C 0,6 C -1,1 C 95 % 1004,7 hPa 0,0 l/m 0 min 2 min 0 W/m 25,7 km/h (4 Bft) 97,87 %
10.03.2023 23:16 1,1 C 0,6 C -1,1 C 95 % 1004,9 hPa 0,0 l/m 0 min 0 min 0 W/m 16,1 km/h (3 Bft) 95,65 %
10.03.2023 23:18 1,1 C 0,6 C -1,1 C 95 % 1004,9 hPa 0,0 l/m 0 min 0 min 0 W/m 16,1 km/h (3 Bft) 97,87 %
10.03.2023 23:20 1,1 C 0,6 C -1,1 C 95 % 1004,8 hPa 0,0 l/m 0 min 0 min 0 W/m 19,3 km/h (3 Bft) 97,87 %
10.03.2023 23:22 1,1 C 0,6 C -1,1 C 95 % 1004,8 hPa 0,0 l/m 0 min 2 min 0 W/m 19,3 km/h (3 Bft) 93,62 %
10.03.2023 23:24 1,1 C 0,6 C -1,1 C 95 % 1004,9 hPa 0,0 l/m 0 min 0 min 0 W/m 12,9 km/h (3 Bft) 97,87 %
10.03.2023 23:26 1,1 C 0,6 C -1,1 C 95 % 1004,9 hPa 0,0 l/m 0 min 0 min 0 W/m 12,9 km/h (3 Bft) 97,87 %
10.03.2023 23:28 1,1 C 0,6 C -1,1 C 95 % 1005,0 hPa 0,0 l/m 0 min 0 min 0 W/m 19,3 km/h (3 Bft) 97,87 %
10.03.2023 23:30 1,1 C 0,6 C -1,1 C 95 % 1005,1 hPa 0,0 l/m 0 min 0 min 0 W/m 16,1 km/h (3 Bft) 97,83 %
10.03.2023 23:32 1,1 C 0,6 C -1,1 C 95 % 1005,1 hPa 0,0 l/m 0 min 0 min 0 W/m 16,1 km/h (3 Bft) 95,74 %
10.03.2023 23:34 1,1 C 0,6 C -1,1 C 95 % 1005,2 hPa 0,0 l/m 0 min 0 min 0 W/m 16,1 km/h (3 Bft) 97,87 %
10.03.2023 23:36 1,2 C 0,6 C -1,1 C 95 % 1005,2 hPa 0,0 l/m 0 min 0 min 0 W/m 16,1 km/h (3 Bft) 97,87 %
10.03.2023 23:38 1,2 C 0,6 C -1,1 C 95 % 1005,3 hPa 0,0 l/m 0 min 0 min 0 W/m 16,1 km/h (3 Bft) 97,87 %
10.03.2023 23:40 1,2 C 0,6 C -1,1 C 95 % 1005,3 hPa 0,0 l/m 0 min 0 min 0 W/m 19,3 km/h (3 Bft) 97,87 %
10.03.2023 23:42 1,2 C 0,6 C -1,1 C 95 % 1005,3 hPa 0,0 l/m 0 min 0 min 0 W/m 12,9 km/h (3 Bft) 95,74 %
10.03.2023 23:44 1,2 C 0,6 C -1,1 C 95 % 1005,4 hPa 0,0 l/m 0 min 0 min 0 W/m 16,1 km/h (3 Bft) 97,83 %
10.03.2023 23:46 1,2 C 0,6 C -1,1 C 95 % 1005,4 hPa 0,0 l/m 0 min 0 min 0 W/m 16,1 km/h (3 Bft) 95,74 %
10.03.2023 23:48 1,2 C 1,1 C -1,1 C 94 % 1005,4 hPa 0,0 l/m 0 min 0 min 0 W/m 16,1 km/h (3 Bft) 97,87 %
10.03.2023 23:50 1,2 C 1,1 C -1,1 C 95 % 1005,4 hPa 0,0 l/m 0 min 0 min 0 W/m 12,9 km/h (3 Bft) 97,87 %
10.03.2023 23:52 1,2 C 1,1 C -1,1 C 95 % 1005,4 hPa 0,0 l/m 0 min 0 min 0 W/m 16,1 km/h (3 Bft) 100,00 %
10.03.2023 23:54 1,2 C 1,1 C -1,1 C 95 % 1005,5 hPa 0,0 l/m 0 min 0 min 0 W/m 19,3 km/h (3 Bft) 100,00 %
10.03.2023 23:56 1,3 C 1,1 C -1,1 C 94 % 1005,5 hPa 0,0 l/m 0 min 0 min 0 W/m 19,3 km/h (3 Bft) 100,00 %
10.03.2023 23:58 1,3 C 1,1 C -1,1 C 94 % 1005,5 hPa 0,0 l/m 0 min 0 min 0 W/m 16,1 km/h (3 Bft) 100,00 %
_ Min-Zeit 18:26 18:16 18:14 11:46 14:28 - - - - 06:38 00:36
Minimum _ 0,8 C 0,0 C -1,7 C 82 % 986,3 hPa - - - - 0,0 km/h (0 Bft) 44,74 %
_ Max-Zeit 11:28 11:20 11:22 00:00 23:54 00:12 09:58 00:25 11:20 16:36 00:08
Maximum _ 12,2 C 14,4 C 10,6 C 99 % 1005,5 hPa 0,2 l/m 2 min 5 min 370 W/m 61,2 km/h
S-SW (7 Bft)
100,00 %
Durchschnitt _ 7,2 C 6,6 C 4,5 C 95 % 991,1 hPa #9,6 l/m #1:12 h #11:56 h 94 W/m 21,1 km/h (4 Bft) 96,54 %
© 2023 W. Hausmann